                ,  0.290,  0.386,  0.483,  0.580,  0.676,  0.773,  0.869,  0.966,  1.063,  1.159,  1.256,  1.352,  1.449,  1.545,  1.642,  1.739,  1.835,  1.932,  2.028,  2.125,  2.222,  2.318,  2.415,  2.511,  2.608,  2.705,  2.801,  2.898,  2.994,  3.091,  3.188,  3.284,  3.381,  3.477,  3.574,  3.671,  3.767,  3.864,  3.960,  4.057,  4.153,  4.250,  4.347,  4.443,  4.540,  4.636,  4.733,  4.830,  4.926,  5.023,  5.119,  5.216,  5.313,  5.409,  5.506,  5.602,  5.699,  5.796
2000/11/18 00:00,  999.0,  999.0,  999.0,  999.0,  999.0,  999.0,  999.0,  999.0,  999.0,  999.0,  999.0,  999.0,  999.0,  999.0,  999.0,  999.0,  999.0,  999.0,  999.0,  999.0,  999.0,  999.0,  999.0,  999.0,  999.0,  999.0,  999.0,  999.0,  999.0,  999.0,  999.0,  999.0,  999.0,  999.0,  999.0,  999.0,  999.0,  999.0,  999.0,  999.0,  999.0,  999.0,  999.0,  999.0,  999.0,  999.0,  999.0,  999.0,  999.0,  999.0,  999.0,  999.0,  999.0,  999.0,  999.0,  999.0,  999.0,  999.0
2000/11/18 00:10,  999.0,  999.0,  999.0,   -1.0,   -4.0,   -5.1,    1.3,   -2.1,   -0.5,   -0.5,    1.3,    0.7,    1.8,  999.0,  999.0,  999.0,    6.5,    2.1,    3.2,  999.0,    3.2,  999.0,    0.6,  999.0,  999.0,   -0.4,  999.0,  999.0,  999.0,  999.0,  999.0,  999.0,  999.0,  999.0,  999.0,  999.0,  999.0,  999.0,  999.0,  999.0,  999.0,  999.0,  999.0,  999.0,  999.0,  999.0,  999.0,  999.0,  999.0,  999.0,  999.0,  999.0,  999.0,  999.0,  999.0,  999.0,  999.0,  999.0
2000/11/18 00:20,  999.0,  999.0,  999.0,  999.0,   -1.5,   -2.0,   -0.1,    1.8,    1.2,    3.4,   -0.8,   -2.4,  999.0,    3.9,  999.0,  999.0,  999.0,  999.0,  999.0,  999.0,  999.0,  999.0,  999.0,  999.0,  999.0,  999.0,  999.0,  999.0,  999.0,  999.0,  999.0,  999.0,  999.0,  999.0,  999.0,  999.0,  999.0,  999.0,  999.0,  999.0,  999.0,  999.0,  999.0,  999.0,  999.0,  999.0,  999.0,  999.0,  999.0,  999.0,  999.0,  999.0,  999.0,  999.0,  999.0,  999.0,  999.0,  999.0
2000/11/18 00:30,  999.0,  999.0,  999.0,   -2.1,    0.1,    0.2,    0.9,  999.0,    0.9,   -0.6,    0.5,  999.0,   -1.5,    3.9,  999.0,  999.0,  999.0,  999.0,  999.0,  999.0,  999.0,  999.0,  999.0,  999.0,   -1.5,   -0.5,    0.9,  999.0,  999.0,  999.0,  999.0,  999.0,  999.0,  999.0,  999.0,  999.0,  999.0,  999.0,  999.0,  999.0,  999.0,  999.0,  999.0,  999.0,  999.0,  999.0,  999.0,  999.0,  999.0,  999.0,  999.0,  999.0,  999.0,  999.0,  999.0,  999.0,  999.0,  999.0
2000/11/18 00:40,  999.0,  999.0,  999.0,   -1.0,   -1.4,   -0.7,   -0.4,    1.8,    0.4,  999.0,    0.0,  999.0,   -4.2,  999.0,  999.0,  999.0,  999.0,  999.0,  999.0,  999.0,  999.0,  999.0,  999.0,   -0.0,  999.0,    1.3,    1.4,  999.0,  999.0,  999.0,  999.0,  999.0,  999.0,  999.0,  999.0,  999.0,  999.0,  999.0,  999.0,  999.0,  999.0,  999.0,  999.0,  999.0,  999.0,  999.0,  999.0,  999.0,  999.0,  999.0,  999.0,  999.0,  999.0,  999.0,  999.0,  999.0,  999.0,  999.0
2000/11/18 00:50,  999.0,  999.0,    0.7,   -2.0,    0.4,   -1.4,  999.0,    3.2,  999.0,   -2.2,   -4.0,  999.0,   -1.2,  999.0,  999.0,  999.0,  999.0,   -1.5,  999.0,  999.0,  999.0,  999.0,  999.0,  999.0,  999.0,  999.0,  999.0,  999.0,  999.0,  999.0,  999.0,  999.0,  999.0,  999.0,  999.0,   -1.3,   -1.0,  999.0,  999.0,   -0.7,  999.0,  999.0,  999.0,   -0.8,   -0.8,   -0.8,  999.0,  999.0,   -1.3,   -1.0,  999.0,  999.0,   -0.8,   -0.9,  999.0,   -1.4,   -0.3,   -0.8
2000/11/18 01:00,  999.0,  999.0,    2.4,   -1.5,    0.3,   -0.2,  999.0,  999.0,    0.1,   -0.9,   -0.7,    1.6,  999.0,  999.0,  999.0,   -2.8,  999.0,  999.0,  999.0,  999.0,  999.0,  999.0,   -1.6,  999.0,  999.0,  999.0,  999.0,  999.0,  999.0,  999.0,  999.0,  999.0,  999.0,  999.0,  999.0,  999.0,  999.0,  999.0,  999.0,   -0.6,   -0.8,   -1.0,   -0.2,  999.0,    0.0,   -0.7,   -0.6,   -0.9,   -0.5,   -0.9,   -0.6,   -0.7,   -0.9,   -0.5,   -0.5,   -0.7,   -0.7,   -0.6
2000/11/18 01:10,  999.0,  999.0,  999.0,    1.1,   -0.3,   -0.3,   -3.6,   -1.7,    6.3,   -2.4,   -1.3,   -0.9,  999.0,   -3.3,  999.0,  999.0,   -3.7,   -1.0,   -3.3,   -1.6,  999.0,   -2.7,   -3.2,    0.4,   -2.5,  999.0,  999.0,  999.0,  999.0,  999.0,  999.0,  999.0,  999.0,  999.0,   -2.1,   -0.7,   -0.6,   -1.2,   -1.4,   -0.8,   -0.4,   -0.8,   -0.4,   -0.7,  999.0,   -0.4,   -0.8,   -1.3,   -0.8,   -0.5,   -0.4,   -0.5,  999.0,   -1.1,   -1.2,   -0.4,   -0.3,    0.2
2000/11/18 01:20,  999.0,  999.0,   -0.4,   -0.9,   -2.4,  999.0,   -0.3,    2.4,  999.0,    0.6,   -1.6,    0.6,  999.0,  999.0,  999.0,  999.0,  999.0,  999.0,   -3.3,   -2.1,   -2.2,   -1.3,  999.0,  999.0,  999.0,  999.0,  999.0,  999.0,  999.0,  999.0,  999.0,  999.0,  999.0,  999.0,  999.0,   -5.2,   -6.5,  999.0,   -5.5,   -2.0,   -4.1,  999.0,   -2.4,   -0.9,  999.0,  999.0,   -1.2,   -1.6,   -1.6,   -1.1,   -0.4,   -0.7,  999.0,   -0.5,   -0.5,  999.0,  999.0,  999.0
2000/11/18 01:30,  999.0,    1.8,  999.0,    1.7,   -2.1,   -1.4,    3.4,    5.4,    1.6,   -1.5,   -2.0,  999.0,  999.0,  999.0,  999.0,  999.0,  999.0,   -4.7,   -2.4,  999.0,  999.0,  999.0,  999.0,  999.0,  999.0,  999.0,  999.0,  999.0,  999.0,  999.0,  999.0,  999.0,  999.0,   -7.0,  999.0,   -4.8,   -4.0,   -3.6,   -4.5,  999.0,   -1.5,   -0.6,   -0.7,   -1.0,   -0.6,   -1.2,  999.0,  999.0,   -1.0,   -1.0,   -0.6,   -0.5,   -0.8,    0.0,  999.0,   -1.4,   -0.4,   -0.3
2000/11/18 01:40,  999.0,  999.0,    4.4,    1.6,    5.4,  999.0,    3.4,  999.0,    2.0,   -2.0,   -2.6,  999.0,  999.0,  999.0,  999.0,  999.0,  999.0,  999.0,  999.0,  999.0,  999.0,  999.0,   -2.0,  999.0,  999.0,  999.0,  999.0,  999.0,  999.0,  999.0,  999.0,  999.0,  999.0,   -1.9,   -1.4,  999.0,  999.0,  999.0,   -4.7,   -2.9,   -3.0,   -3.1,   -0.6,   -2.0,   -0.3,  999.0,   -0.4,   -1.0,  999.0,   -0.2,   -0.9,   -0.6,   -0.9,   -0.7,   -1.5,   -0.6,   -0.3,   -0.8
2000/11/18 01:50,  999.0,  999.0,    1.9,    3.4,    0.3,    1.4,    4.7,    4.9,    1.6,   -1.0,   -1.8,   -3.9,   -3.0,   -0.1,   -3.7,  999.0,  999.0,  999.0,  999.0,   -0.3,   -3.4,  999.0,  999.0,  999.0,  999.0,  999.0,  999.0,  999.0,  999.0,  999.0,  999.0,  999.0,  999.0,  999.0,  999.0,   -3.1,  999.0,   -1.4,   -0.8,   -0.5,   -0.8,   -1.0,   -0.4,   -1.0,   -0.5,   -0.7,  999.0,   -0.5,   -1.1,   -1.0,  999.0,  999.0,   -0.7,   -0.7,  999.0,   -1.0,  999.0,   -0.9
2000/11/18 02:00,  999.0,   -2.9,  999.0,   -0.1,    0.5,   -0.1,  999.0,    0.6,   -0.0,   -2.3,   -3.3,   -3.0,   -4.0,   -3.9,   -3.3,   -4.5,  999.0,  999.0,  999.0,  999.0,  999.0,  999.0,  999.0,  999.0,  999.0,  999.0,  999.0,  999.0,  999.0,  999.0,  999.0,  999.0,  999.0,  999.0,   -1.0,   -0.9,   -0.8,  999.0,   -0.8,  999.0,   -0.4,   -0.8,   -0.9,   -1.2,   -0.8,   -1.4,   -0.3,   -0.7,   -0.5,   -0.0,   -0.1,   -0.9,   -0.6,   -0.6,   -0.4,   -0.1,   -1.0,   -0.3
2000/11/18 02:10,  999.0,  999.0,   -0.5,    0.4,   -1.1,   -0.4,   -0.5,   -0.3,   -1.7,   -2.0,   -2.7,   -3.0,   -2.6,   -3.3,   -4.3,   -4.2,   -3.6,  999.0,   -6.3,  999.0,  999.0,  999.0,  999.0,  999.0,  999.0,  999.0,  999.0,  999.0,  999.0,  999.0,  999.0,  999.0,  999.0,   -4.8,   -2.9,  999.0,   -1.6,   -0.7,   -0.2,   -0.8,   -1.0,   -0.2,   -0.8,    0.2,   -0.3,   -0.7,   -0.7,   -0.5,   -0.8,   -0.3,   -0.9,   -0.8,   -0.6,  999.0,   -0.8,   -0.5,   -1.2,   -0.7
2000/11/18 02:20,  999.0,  999.0,   -3.0,  999.0,  999.0,   -0.2,   -2.5,   -2.9,   -1.2,   -2.0,   -2.2,   -4.0,  999.0,   -3.6,   -3.2,  999.0,   -2.4,  999.0,  999.0,  999.0,  999.0,  999.0,  999.0,  999.0,  999.0,  999.0,  999.0,  999.0,  999.0,  999.0,  999.0,  999.0,  999.0,   -6.1,   -3.5,   -1.4,   -0.8,  999.0,   -1.7,   -2.3,   -1.0,   -1.0,   -1.1,  999.0,   -0.9,  999.0,   -1.4,   -0.6,   -0.6,  999.0,   -0.7,  999.0,   -0.6,   -0.4,   -0.8,   -1.0,   -0.1,   -1.0
2000/11/18 02:30,  999.0,    0.2,   -0.9,    0.7,    0.5,    1.6,    5.0,   -0.5,   -1.7,   -3.1,   -4.8,   -4.8,   -4.1,   -4.6,  999.0,  999.0,   -4.2,   -7.2,   -8.0,  999.0,  999.0,  999.0,  999.0,  999.0,  999.0,  999.0,  999.0,  -10.6,   -8.3,   -7.5,  999.0,   -6.4,   -4.9,   -3.4,   -4.2,   -1.9,   -0.5,   -0.8,   -1.0,   -1.3,   -0.6,    0.0,   -0.5,   -0.7,   -0.8,   -1.1,   -1.3,   -1.0,   -1.5,   -0.5,   -0.7,   -1.3,   -0.6,   -0.7,   -0.5,  999.0,   -1.8,   -1.0
2000/11/18 02:40,  999.0,  999.0,  999.0,    1.1,   -0.6,   -3.1,   -0.5,  999.0,   -1.7,   -2.3,   -1.4,   -2.0,   -3.0,   -1.7,  999.0,  999.0,  999.0,  999.0,  999.0,   -2.8,  999.0,   -1.2,  999.0,  999.0,  999.0,  999.0,  -11.6,  999.0,  999.0,   -6.3,   -5.7,   -5.9,  999.0,   -2.1,  999.0,  999.0,  999.0,  999.0,  999.0,  999.0,  999.0,   -0.2,   -0.6,  999.0,   -0.4,   -0.8,  999.0,  999.0,  999.0,   -0.3,  999.0,  999.0,  999.0,  999.0,  999.0,  999.0,   -1.6,  999.0
2000/11/18 02:50,  999.0,    1.9,    2.0,    0.7,    2.1,    0.1,  999.0,    2.5,   -0.7,   -2.3,   -1.9,   -2.2,   -1.5,   -1.8,  999.0,  999.0,  999.0,  999.0,  999.0,  999.0,  999.0,  999.0,   -0.8,  999.0,  999.0,  999.0,  999.0,  -11.9,  999.0,  999.0,  -10.0,   -5.3,   -4.7,   -7.5,   -4.3,   -3.6,   -0.4,   -0.3,   -2.5,   -0.8,  999.0,   -0.2,   -0.5,   -0.6,   -0.7,   -0.3,   -0.7,   -0.5,   -0.9,  999.0,   -0.7,   -0.9,   -1.0,   -1.1,   -0.9,   -0.6,   -0.3,   -0.5
2000/11/18 03:00,  999.0,   -0.6,   -0.4,   -2.7,   -0.2,    0.9,    0.9,    2.3,   -0.2,  999.0,   -5.6,  999.0,  999.0,  999.0,  999.0,  999.0,  999.0,   -6.9,  999.0,  999.0,  999.0,  999.0,  999.0,  999.0,  999.0,  -10.1,  999.0,  999.0,   -5.6,   -6.3,   -3.1,  999.0,   -2.8,  999.0,   -0.9,   -0.4,   -0.7,   -0.5,   -0.7,   -0.6,   -0.9,   -0.4,   -0.7,   -0.2,   -0.3,   -0.6,   -0.4,   -0.9,   -0.8,   -1.0,   -1.6,   -1.0,   -1.2,   -1.0,   -1.1,   -1.5,   -0.8,   -0.7
2000/11/18 03:10,  999.0,  999.0,  999.0,    2.8,    4.5,    3.5,    0.9,   -0.2,   -2.6,   -3.2,   -3.4,   -4.4,   -5.0,   -6.5,   -6.1,   -6.9,  999.0,  999.0,  999.0,  999.0,  999.0,  999.0,  999.0,  999.0,  999.0,  -11.9,  -10.5,  -12.4,   -9.2,   -5.7,   -9.2,   -2.8,   -8.1,   -3.2,   -3.7,   -0.6,   -4.5,  999.0,   -1.1,   -1.2,   -0.8,  999.0,   -1.0,  999.0,   -0.8,   -0.8,   -0.8,  999.0,   -0.4,   -0.7,   -0.8,   -0.5,  999.0,  999.0,   -0.9,   -1.1,   -0.9,   -0.6
2000/11/18 03:20,  999.0,    4.6,  999.0,  999.0,   -1.6,    0.1,   -1.4,   -1.9,   -2.5,   -2.1,   -3.7,   -3.5,   -4.4,  999.0,  999.0,  999.0,  999.0,  999.0,  999.0,  999.0,  999.0,  999.0,  999.0,  999.0,   -9.6,   -9.0,   -7.9,   -6.7,   -3.2,   -1.1,   -1.0,   -1.3,   -1.4,   -2.1,   -1.3,   -1.0,   -1.0,   -0.4,   -0.4,   -0.7,   -0.7,   -1.0,   -1.0,   -0.5,   -0.0,   -0.3,   -1.4,   -0.8,   -0.2,   -0.9,  999.0,   -0.5,   -0.2,   -0.6,   -1.0,   -0.4,   -0.4,   -1.3
2000/11/18 03:30,  999.0,  999.0,  999.0,  999.0,    0.3,    0.9,    0.1,   -1.7,   -2.0,   -1.8,   -2.8,   -2.5,  999.0,  999.0,   -5.2,   -4.1,  999.0,  999.0,  999.0,  999.0,  999.0,  999.0,  999.0,  999.0,  -12.4,  -13.2,   -6.7,   -6.2,   -4.3,   -7.3,   -4.5,   -2.8,   -0.9,   -1.6,   -1.7,   -1.3,   -0.2,   -0.7,   -1.8,   -0.7,   -0.9,  999.0,   -0.3,   -0.7,   -0.9,  999.0,   -0.1,   -1.1,   -1.2,   -0.6,   -0.9,   -0.9,   -1.2,  999.0,   -1.6,   -1.0,   -1.2,   -0.9
2000/11/18 03:40,  999.0,    0.0,    1.6,  999.0,   -2.2,   -2.1,   -1.5,   -1.5,   -1.9,   -3.3,   -1.0,   -1.1,   -2.4,  999.0,   -3.2,   -2.2,  999.0,  999.0,  999.0,  999.0,  999.0,  999.0,  999.0,  -10.8,  -10.0,   -7.9,   -6.9,   -6.5,   -4.5,  999.0,  999.0,  999.0,   -0.9,   -1.0,  999.0,  999.0,   -0.6,   -0.6,  999.0,  999.0,  999.0,   -0.4,  999.0,   -0.5,  999.0,   -1.1,   -0.6,  999.0,   -1.8,   -0.9,  999.0,   -0.7,   -0.9,   -0.3,  999.0,  999.0,  999.0,   -0.6
2000/11/18 03:50,  999.0,  999.0,  999.0,   -2.1,   -0.5,    0.5,    2.4,   -0.8,   -1.6,   -2.6,  999.0,  999.0,   -5.0,  999.0,  999.0,  999.0,   -4.4,    2.5,   -3.4,  999.0,  999.0,  999.0,  999.0,  999.0,  999.0,  999.0,  999.0,  999.0,  999.0,  999.0,  999.0,  999.0,  999.0,  999.0,  999.0,  999.0,  999.0,  999.0,  999.0,   -0.6,   -0.6,  999.0,  999.0,   -0.6,   -0.9,  999.0,   -0.8,   -0.2,  999.0,   -0.6,  999.0,  999.0,  999.0,   -0.3,   -0.8,  999.0,   -1.0,  999.0
2000/11/18 04:00,  999.0,   -2.3,    4.4,    5.2,  999.0,  999.0,    1.0,   -1.7,   -2.3,   -1.4,  999.0,   -8.0,  999.0,  999.0,  999.0,  999.0,  999.0,  999.0,  999.0,  999.0,  999.0,  999.0,  999.0,  999.0,  999.0,  999.0,  999.0,  999.0,  999.0,  999.0,  999.0,  999.0,  999.0,  999.0,  999.0,  999.0,  999.0,  999.0,  999.0,  999.0,  999.0,  999.0,  999.0,  999.0,  999.0,  999.0,  999.0,  999.0,  999.0,  999.0,  999.0,  999.0,  999.0,  999.0,  999.0,  999.0,  999.0,  999.0
2000/11/18 04:10,  999.0,  999.0,    1.5,    0.0,   -0.5,   -0.5,   -1.8,   -2.5,   -2.6,   -5.9,   -4.3,   -3.6,  999.0,  999.0,  999.0,  999.0,   -3.7,   -4.2,   -4.0,  999.0,  999.0,  999.0,  -13.9,  -13.2,  999.0,  999.0,  999.0,  999.0,   -7.0,  999.0,  999.0,   -3.4,  999.0,  999.0,  999.0,   -1.1,  999.0,  999.0,  999.0,  999.0,  999.0,  999.0,  999.0,  999.0,  999.0,   -1.1,  999.0,  999.0,  999.0,   -0.4,   -0.5,  999.0,   -1.4,   -0.8,  999.0,   -0.2,   -0.6,   -0.7
2000/11/18 04:20,  999.0,  999.0,  999.0,   -1.1,   -1.1,  999.0,   -0.2,   -0.8,   -1.4,   -1.8,  999.0,  999.0,  999.0,  999.0,  999.0,  999.0,  999.0,  999.0,  999.0,  999.0,   -2.1,  999.0,  999.0,  999.0,  999.0,  999.0,  999.0,  999.0,  999.0,  999.0,  999.0,  999.0,  999.0,  999.0,  999.0,  999.0,  999.0,  999.0,  999.0,  999.0,  999.0,  999.0,  999.0,  999.0,  999.0,  999.0,   -0.7,  999.0,  999.0,  999.0,  999.0,  999.0,  999.0,  999.0,  999.0,  999.0,  999.0,   -1.3
2000/11/18 04:30,  999.0,  999.0,   -2.2,    1.0,   -0.4,   -0.3,   -1.6,   -0.8,   -1.2,   -1.0,   -1.8,  999.0,  999.0,  999.0,  999.0,   -1.6,   -3.9,  999.0,   -2.2,    0.0,  999.0,  999.0,  999.0,  999.0,  999.0,  999.0,  999.0,  999.0,  999.0,  999.0,  999.0,  999.0,   -1.3,   -1.1,    0.0,  999.0,   -0.8,   -1.1,  999.0,   -0.6,  999.0,  999.0,   -0.9,   -0.9,   -0.0,   -0.3,   -0.7,  999.0,   -0.2,  999.0,   -0.5,   -0.4,   -0.7,  999.0,   -0.1,   -0.6,   -0.3,   -0.9
2000/11/18 04:40,  999.0,  999.0,  999.0,  999.0,  999.0,  999.0,    0.6,   -0.0,    0.2,   -1.8,   -0.9,  999.0,   -3.6,   -3.7,  999.0,  999.0,   -2.9,   -5.3,   -4.3,  999.0,  999.0,    1.5,  999.0,  999.0,  999.0,  999.0,  999.0,  999.0,  999.0,   -6.5,  999.0,  999.0,   -4.2,  999.0,  999.0,   -1.2,   -1.2,   -1.2,   -1.7,   -0.6,   -0.5,   -0.5,   -1.1,   -1.0,   -0.4,   -1.8,   -0.5,   -0.7,   -0.7,   -0.7,   -1.1,   -0.6,   -0.9,   -1.0,   -0.5,   -0.5,    0.5,   -0.9
2000/11/18 04:50,  999.0,  999.0,  999.0,  999.0,   -5.8,  999.0,   -0.8,    0.1,    0.5,   -0.9,  999.0,  999.0,   -0.3,  999.0,  999.0,  999.0,  999.0,  999.0,  999.0,  999.0,  999.0,    1.9,  999.0,  999.0,  999.0,  999.0,    1.3,  999.0,  999.0,  999.0,  999.0,  999.0,  999.0,  -10.6,  -10.2,   -8.6,   -4.6,   -0.8,  999.0,   -6.1,  999.0,  999.0,  999.0,  999.0,   -3.0,   -2.0,  999.0,  999.0,   -0.4,   -0.8,   -0.3,    0.4,   -0.1,   -0.8,   -0.9,   -1.2,   -0.2,   -0.0
2000/11/18 05:00,  999.0,  999.0,    8.1,   -0.6,   -2.2,   -0.6,    0.2,  999.0,   -1.5,    0.0,    0.8,  999.0,  999.0,   -2.2,    4.6,  999.0,   -0.2,  999.0,   -3.6,  999.0,   -0.8,   -1.4,  999.0,  999.0,  999.0,    1.7,  999.0,    8.0,  999.0,  999.0,  999.0,  999.0,  999.0,  999.0,  999.0,   -5.5,  999.0,  999.0,   -1.0,   -1.1,  999.0,   -0.7,   -0.8,   -0.8,   -0.6,   -1.5,  999.0,   -0.3,   -0.6,   -0.7,   -0.4,   -0.6,   -1.0,   -0.7,   -0.9,   -0.6,   -1.0,   -0.1
2000/11/18 05:10,  999.0,  999.0,    3.0,    1.5,   -0.2,   -1.8,    2.3,   -1.3,   -1.3,   -2.9,   -2.9,  999.0,  999.0,  999.0,  999.0,  999.0,  999.0,  999.0,  999.0,  999.0,  999.0,   -1.0,  999.0,  999.0,  999.0,  999.0,  999.0,  999.0,  999.0,  999.0,  999.0,  999.0,  999.0,   -0.8,   -0.4,   -1.2,  999.0,   -0.9,   -0.4,  999.0,   -0.9,   -0.8,   -0.1,   -0.4,   -0.4,   -0.7,   -1.2,   -0.8,   -0.0,   -1.3,   -1.6,   -0.8,   -0.6,   -0.5,   -0.6,  999.0,   -0.7,   -1.0
2000/11/18 05:20,  999.0,   -2.9,   -2.5,    0.4,   -1.5,    0.9,    2.5,   -3.5,   -3.2,   -4.2,  999.0,  999.0,  999.0,  999.0,  999.0,  999.0,  999.0,  999.0,  999.0,  999.0,  999.0,  999.0,  999.0,  999.0,  999.0,  999.0,  999.0,  999.0,  999.0,  999.0,  999.0,  999.0,   -2.3,   -1.6,   -1.1,   -0.8,   -0.8,   -0.8,   -0.9,   -1.0,   -0.2,   -0.5,   -0.5,   -0.6,   -1.2,   -1.3,   -0.2,   -0.4,  999.0,   -0.0,   -0.9,   -0.8,   -1.3,   -0.4,   -1.0,  999.0,   -0.8,   -1.2
2000/11/18 05:30,  999.0,   -1.3,   -2.7,   -1.4,   -0.7,   -1.4,   -0.7,   -0.8,   -1.0,   -2.7,   -2.1,   -2.2,   -2.8,   -2.9,  999.0,  999.0,   -3.0,   -2.9,  999.0,   -1.7,  999.0,  999.0,  999.0,  999.0,  999.0,  999.0,  999.0,  999.0,   -6.3,   -7.2,   -5.0,   -5.0,   -3.4,  999.0,   -1.0,   -1.3,   -0.6,   -0.8,   -0.4,   -0.4,    0.4,  999.0,   -1.2,   -0.0,   -1.1,   -0.7,   -0.6,   -0.8,   -0.4,   -0.7,   -0.7,   -0.6,   -0.6,   -0.7,   -0.8,   -0.1,   -0.8,   -0.9
2000/11/18 05:40,  999.0,  999.0,    1.2,    0.3,    0.4,   -0.8,   -0.8,   -0.5,   -2.6,   -3.4,   -4.0,   -3.1,   -4.1,  999.0,   -3.7,  999.0,  999.0,  999.0,   -3.1,  999.0,  999.0,  999.0,  999.0,  999.0,  999.0,  999.0,  999.0,  999.0,  999.0,   -3.6,  999.0,   -2.2,   -3.3,   -1.3,   -1.1,   -0.9,   -0.7,   -0.5,   -1.0,   -0.7,   -0.1,   -0.1,   -0.5,   -0.7,   -1.4,   -0.0,   -0.1,   -0.6,  999.0,   -0.5,   -1.0,   -0.3,   -0.4,   -0.6,   -1.0,   -1.1,   -1.6,  999.0
2000/11/18 05:50,  999.0,  999.0,   -1.8,    2.9,   -0.9,    0.1,   -0.0,   -0.7,   -4.2,   -4.3,   -4.5,   -3.8,   -4.4,   -4.1,  999.0,   -7.4,  999.0,  999.0,  999.0,  999.0,  999.0,  999.0,  999.0,  999.0,  999.0,  999.0,  999.0,  999.0,   -5.6,   -4.2,   -3.4,   -1.4,   -1.5,   -0.5,   -0.6,  999.0,   -0.3,   -0.9,   -1.0,   -0.6,   -0.7,   -0.7,   -1.1,   -0.6,   -1.4,   -1.2,   -0.5,   -1.4,   -1.2,   -0.3,   -0.5,   -0.3,   -0.1,   -0.6,   -0.7,   -0.7,   -0.6,   -0.5
2000/11/18 06:00,  999.0,  999.0,   -1.9,    0.3,   -0.4,   -1.7,   -2.1,   -3.5,   -3.6,   -4.0,   -5.0,   -4.5,   -4.0,   -4.5,   -5.5,  999.0,  999.0,  999.0,   -2.5,  999.0,    0.4,  999.0,  999.0,  999.0,  999.0,  999.0,  999.0,  999.0,  999.0,   -7.9,  999.0,  999.0,   -3.3,   -2.1,   -1.0,   -0.5,   -0.6,   -0.5,   -0.3,   -0.8,   -1.1,  999.0,   -0.6,   -0.5,   -1.5,   -0.1,   -0.7,   -0.6,   -0.7,   -0.8,   -0.3,    0.2,   -0.8,   -0.4,  999.0,   -0.8,    0.1,   -0.3
2000/11/18 06:10,  999.0,  999.0,    1.6,   -0.2,    4.1,    2.0,   -3.9,   -5.8,   -4.0,   -3.7,   -2.4,   -5.5,   -7.0,   -7.8,   -8.0,  999.0,  999.0,  999.0,  999.0,  999.0,  999.0,  999.0,  999.0,  999.0,   -9.5,  999.0,  999.0,  999.0,   -4.1,   -3.8,   -3.3,   -1.3,   -1.6,  999.0,   -0.6,  999.0,   -1.3,   -0.6,   -0.5,   -0.8,  999.0,   -1.5,  999.0,   -0.6,   -0.7,   -0.4,   -0.9,   -0.6,   -1.4,  999.0,   -1.0,   -0.4,   -1.0,   -0.7,  999.0,   -1.0,  999.0,   -0.6
2000/11/18 06:20,  999.0,   -1.0,   -0.3,    1.0,   -0.8,   -2.6,   -0.7,   -1.7,   -0.3,   -3.0,   -3.5,   -4.1,   -3.3,  999.0,   -8.3,   -8.5,   -5.1,  999.0,  999.0,  999.0,  999.0,  -11.1,  -11.6,   -8.7,   -8.5,   -6.9,   -5.8,   -4.4,   -4.0,   -6.0,  999.0,   -1.6,   -1.7,   -0.6,  999.0,   -0.9,   -0.8,   -0.8,  999.0,   -1.0,   -0.3,   -0.4,   -0.5,   -1.3,   -1.0,   -0.5,    0.3,   -0.6,   -0.5,  999.0,   -0.8,   -0.9,   -1.2,   -0.9,   -0.8,   -0.4,   -0.3,   -0.9
2000/11/18 06:30,  999.0,   -0.6,    0.3,    0.1,    0.8,   -0.7,  999.0,  999.0,    1.2,   -0.5,   -2.0,   -5.3,   -8.1,   -9.1,  999.0,   -5.9,   -5.6,  999.0,  999.0,  999.0,  999.0,  999.0,  -10.8,  -12.0,   -8.9,   -8.4,   -6.5,   -6.7,   -4.0,   -2.4,   -0.9,   -0.7,   -0.1,   -0.7,   -0.7,   -0.4,   -0.7,   -1.0,   -1.1,   -1.4,   -1.3,   -1.1,   -0.6,   -0.4,   -0.7,   -0.8,   -1.0,   -0.6,  999.0,   -0.8,   -0.8,   -0.9,   -0.6,   -1.0,   -0.9,   -1.0,  999.0,   -0.9
2000/11/18 06:40,  999.0,   -0.3,   -0.4,    0.3,    1.4,   -1.2,   -0.7,   -1.5,   -1.4,   -1.0,  999.0,  999.0,  999.0,   -3.7,   -9.8,   -9.8,  999.0,  999.0,  999.0,  999.0,  999.0,  999.0,  -13.9,  -12.6,   -9.3,  999.0,   -9.1,   -5.1,   -4.6,   -3.9,  999.0,   -0.1,   -1.9,   -1.2,   -0.4,   -0.4,   -0.6,   -0.3,   -0.3,   -0.1,   -0.6,   -0.6,   -0.5,   -1.0,   -0.8,   -0.6,   -0.9,   -0.7,   -0.9,   -0.6,   -0.8,   -0.7,   -0.3,   -1.1,   -0.7,   -0.4,   -1.1,   -0.9
2000/11/18 06:50,  999.0,   -0.4,    0.2,    0.5,    0.3,   -1.0,   -1.1,   -1.5,   -3.4,  999.0,  999.0,   -5.8,   -6.1,  999.0,   -6.1,  -11.9,  999.0,  999.0,  999.0,  999.0,  999.0,  999.0,  -12.6,  -12.3,  -10.1,   -9.6,  -10.2,   -7.3,   -2.5,   -2.8,   -3.8,   -3.7,   -1.0,   -0.8,   -0.7,   -0.6,   -1.3,   -1.4,  999.0,   -1.0,   -0.6,   -0.4,   -0.5,   -0.9,   -0.7,   -0.7,   -0.6,    0.0,   -0.3,   -0.3,   -0.3,   -1.0,   -1.1,   -0.8,   -0.5,   -0.9,   -0.9,   -1.1
2000/11/18 07:00,  999.0,   -1.0,   -1.1,    0.3,    0.2,   -1.1,   -1.2,   -0.9,   -1.6,  999.0,  999.0,   -8.0,   -9.6,  999.0,  999.0,  999.0,  999.0,  999.0,  999.0,  999.0,  -13.2,  -11.6,  -10.9,   -9.5,   -8.0,   -6.4,   -4.3,   -2.5,   -1.4,   -0.3,  999.0,   -0.4,   -0.9,  999.0,   -1.0,   -0.7,   -0.8,   -0.5,   -0.6,   -1.1,   -0.9,   -0.8,   -0.8,   -0.4,   -0.9,   -0.8,   -0.7,   -1.1,   -0.5,   -0.8,   -0.9,   -0.6,   -1.1,   -0.5,   -0.3,   -0.8,   -0.4,   -1.0
2000/11/18 07:10,  999.0,   -0.2,   -0.2,   -0.5,    0.0,   -0.3,   -1.8,   -2.6,   -3.5,  999.0,   -7.6,  999.0,  999.0,  999.0,  999.0,  999.0,  999.0,  999.0,  999.0,  -16.1,  -15.0,  -13.5,  -12.3,  -10.6,   -8.7,   -7.6,  999.0,   -4.4,   -2.2,  999.0,   -1.1,   -1.0,   -1.1,   -0.6,   -1.6,   -0.8,   -0.8,   -0.9,   -0.7,   -0.7,   -0.6,   -0.7,   -0.9,   -1.0,   -0.7,   -1.0,   -0.8,   -0.7,   -1.0,   -1.3,   -0.8,   -0.3,   -0.3,   -0.2,   -0.9,   -0.8,   -0.5,   -0.4
2000/11/18 07:20,  999.0,   -0.5,   -0.1,    0.5,   -0.1,   -1.3,   -1.9,   -2.0,  999.0,   -2.4,   -0.8,  999.0,  999.0,  999.0,  999.0,  999.0,  999.0,  999.0,  999.0,  999.0,  999.0,  -14.9,  -12.6,  -11.1,   -8.7,   -6.8,   -5.1,   -3.4,   -1.2,   -0.6,   -0.5,   -0.8,   -0.5,   -1.0,   -1.1,   -1.1,   -0.5,   -0.9,   -0.9,   -1.1,   -1.0,   -1.1,   -0.7,   -1.0,   -0.8,   -0.4,   -1.0,   -1.1,   -0.4,   -0.6,   -0.6,   -0.8,   -0.5,   -0.7,   -0.9,   -0.7,   -0.8,   -1.1
2000/11/18 07:30,  999.0,   -0.4,   -0.8,   -0.6,   -0.4,   -0.6,   -0.8,  999.0,  999.0,  999.0,   -2.5,  999.0,  999.0,  999.0,  999.0,  999.0,  999.0,  999.0,  999.0,  999.0,  -16.2,  -13.0,  -10.5,   -9.0,   -7.7,   -4.8,   -5.8,   -4.7,  999.0,   -0.4,   -1.6,   -0.8,   -1.0,   -0.7,   -0.8,   -1.0,   -1.2,   -0.6,   -1.1,   -0.5,   -0.5,   -0.7,   -0.8,   -0.9,   -1.1,   -0.6,   -1.1,   -0.9,   -0.9,   -0.7,   -0.7,   -0.6,   -0.6,   -0.6,   -0.5,   -0.6,   -0.7,  999.0
2000/11/18 07:40,  999.0,   -0.8,   -1.0,   -0.4,    0.6,   -0.2,   -0.6,   -0.3,   -0.0,    0.2,  999.0,   -5.4,   -7.5,  999.0,  999.0,  -17.5,  999.0,  -15.1,  999.0,  -12.9,  -11.1,  -10.5,   -8.6,   -7.4,   -5.6,  999.0,   -2.9,   -1.6,   -1.6,  999.0,   -0.7,    0.0,   -0.7,   -0.8,   -0.7,   -1.3,  999.0,    0.1,   -0.7,   -0.8,   -0.7,   -0.2,   -0.7,   -0.9,   -0.5,   -0.6,   -1.1,   -0.5,   -0.6,   -0.2,   -0.3,   -0.9,  999.0,   -1.2,  999.0,  999.0,  999.0,  999.0
2000/11/18 07:50,  999.0,   -0.5,   -1.7,   -0.8,   -0.5,   -0.4,   -0.4,   -2.2,    0.3,    0.6,    0.4,   -4.3,  999.0,  999.0,  999.0,  999.0,  999.0,  999.0,  999.0,  999.0,  999.0,  -10.7,   -9.8,   -9.3,   -5.4,   -4.6,   -4.3,   -3.1,  999.0,   -0.6,  999.0,   -1.2,   -0.6,   -0.6,   -0.9,   -0.4,   -0.7,   -0.7,   -0.5,   -0.6,   -1.0,   -0.9,   -1.2,   -0.8,   -0.2,   -1.3,  999.0,  999.0,  999.0,  999.0,  999.0,  999.0,  999.0,  999.0,  999.0,  999.0,  999.0,  999.0
2000/11/18 08:00,  999.0,   -1.4,   -1.3,   -0.8,   -1.2,   -1.4,   -1.5,   -0.0,    0.2,   -1.2,   -0.1,  999.0,  999.0,  999.0,  999.0,  999.0,  999.0,  999.0,  999.0,  999.0,  -13.5,  -13.3,  -11.0,  -10.9,   -9.0,   -7.9,  999.0,   -5.1,  999.0,   -2.4,   -1.2,   -1.4,   -0.4,  999.0,   -0.2,   -0.8,  999.0,  999.0,   -0.6,   -0.7,    0.0,   -0.1,   -0.4,   -1.0,  999.0,  999.0,  999.0,  999.0,  999.0,  999.0,   -0.8,   -0.9,  999.0,  999.0,  999.0,   -0.6,  999.0,  999.0
2000/11/18 08:10,  999.0,   -1.3,   -1.3,   -0.4,   -0.6,  999.0,    0.1,   -1.5,   -0.6,   -3.5,    0.8,   -0.2,  999.0,  999.0,  999.0,  999.0,  999.0,  999.0,  999.0,  999.0,  999.0,  999.0,  -10.0,  -11.2,   -9.6,   -5.9,   -4.3,   -5.7,   -3.4,   -0.8,   -1.6,   -2.4,   -0.6,   -0.8,   -0.5,   -0.7,   -0.4,  999.0,   -0.4,   -0.8,   -0.8,   -0.5,    0.2,   -1.3,   -0.5,   -1.1,  999.0,   -0.4,   -0.9,   -0.6,   -0.3,   -1.1,  999.0,   -0.7,   -0.9,   -0.1,  999.0,  999.0
2000/11/18 08:20,  999.0,   -1.3,   -0.5,   -0.2,    1.1,   -0.0,   -0.1,    0.4,  999.0,  999.0,   -0.1,   -2.2,   -3.3,  999.0,  999.0,  999.0,  999.0,  999.0,  999.0,  999.0,  999.0,  -12.2,  -12.7,  -10.0,   -7.0,   -6.5,   -5.0,   -2.6,  999.0,  999.0,   -1.1,   -0.5,  999.0,   -0.9,   -0.8,   -1.0,   -0.5,   -0.7,  999.0,  999.0,   -1.6,   -0.6,   -0.9,   -0.5,   -0.6,    0.2,   -0.2,   -0.5,    0.0,   -0.4,   -1.2,   -0.2,   -0.8,   -0.9,   -0.6,   -0.4,  999.0,   -0.3
2000/11/18 08:30,  999.0,   -2.2,   -1.6,   -0.1,   -0.4,    0.8,    0.3,  999.0,   -2.3,    2.1,   -0.6,   -2.8,   -4.7,  999.0,  999.0,  999.0,  999.0,  999.0,  999.0,  999.0,  -14.7,  999.0,  -11.2,   -7.6,   -8.2,  999.0,   -3.4,   -5.4,    0.6,  999.0,   -4.6,  999.0,   -1.3,   -0.6,  999.0,   -0.1,   -1.1,   -0.5,   -0.9,   -0.4,   -1.3,   -0.8,   -0.5,   -0.9,  999.0,   -0.6,  999.0,   -0.4,  999.0,   -1.3,   -0.5,  999.0,   -0.8,   -0.7,   -0.5,   -0.3,   -0.4,   -0.4
2000/11/18 08:40,  999.0,   -2.2,   -3.3,   -3.2,  999.0,    1.8,    1.0,  999.0,   -2.7,   -0.8,   -0.6,   -2.1,   -2.8,  999.0,  999.0,  999.0,  999.0,  999.0,  999.0,  999.0,  999.0,  999.0,  -12.9,  -12.7,  999.0,   -9.9,   -8.2,   -7.7,  999.0,  999.0,   -4.0,   -1.3,   -1.7,   -1.1,  999.0,   -0.9,  999.0,  999.0,   -0.9,   -1.0,   -1.2,  999.0,  999.0,   -0.7,   -1.7,   -0.8,  999.0,   -0.4,   -0.4,   -0.2,  999.0,   -0.2,  999.0,  999.0,  999.0,  999.0,   -0.5,   -1.2
2000/11/18 08:50,  999.0,    0.5,   -0.7,    0.7,   -2.1,   -1.2,    0.8,   -0.7,   -1.6,    0.8,  999.0,  999.0,   -5.8,  999.0,  999.0,  999.0,  -20.0,  -19.0,  999.0,  -16.3,  -14.9,  999.0,  999.0,  999.0,  -14.8,  999.0,  -13.6,  -12.4,  -12.2,  999.0,  -10.4,  -10.1,  999.0,   -8.8,   -7.4,   -6.7,   -6.1,   -6.0,   -5.8,  999.0,  999.0,  999.0,  999.0,  999.0,  999.0,  999.0,  999.0,  999.0,  999.0,  999.0,  999.0,  999.0,  999.0,  999.0,  999.0,  999.0,  999.0,  999.0
2000/11/18 09:00,  999.0,   -0.7,   -1.0,   -3.4,   -1.5,   -1.1,   -2.9,  999.0,  999.0,   -3.1,  999.0,  999.0,   -4.0,  999.0,  999.0,  999.0,  999.0,  999.0,  999.0,  999.0,  999.0,  999.0,   -9.8,   -8.2,  -14.4,   -4.8,  -12.6,  -12.0,   -9.1,   -5.2,    0.3,   -5.0,   -3.8,   -3.4,   -5.2,   -2.0,   -3.2,   -1.4,   -0.6,   -0.5,   -0.9,   -1.0,   -0.5,   -0.5,   -0.8,   -0.4,   -0.7,   -0.5,   -0.4,  999.0,   -0.2,  999.0,   -1.1,   -0.2,  999.0,  999.0,    0.2,   -0.4
2000/11/18 09:10,  999.0,   -1.4,   -0.6,    1.2,   -0.2,   -1.0,  999.0,  999.0,  999.0,  999.0,   -2.3,   -4.2,  999.0,  999.0,  999.0,  999.0,  999.0,  999.0,  999.0,  -17.6,  -16.5,  -16.8,  -14.4,  -11.6,  -11.5,  -10.3,   -7.6,   -8.2,   -7.1,   -5.5,   -4.4,   -4.9,   -2.4,   -2.0,   -1.3,   -0.8,  999.0,   -1.0,   -0.8,   -0.6,   -0.8,   -1.3,   -1.3,   -1.2,   -0.6,   -1.2,   -0.8,   -1.2,   -1.7,   -1.2,   -0.4,   -0.6,   -1.0,  999.0,  999.0,   -0.8,   -1.0,   -0.6
2000/11/18 09:20,  999.0,   -2.0,   -2.2,   -2.1,   -2.8,   -3.0,    1.9,  999.0,  999.0,  999.0,   -2.1,  999.0,  999.0,  999.0,  999.0,  999.0,  999.0,  999.0,  -21.2,  -19.9,  -13.1,  -13.4,  -11.7,  -10.4,   -7.2,   -8.7,   -6.2,   -5.8,   -4.2,   -2.1,   -2.2,   -0.9,   -1.7,   -0.6,   -0.4,   -0.6,   -1.0,   -1.0,   -0.8,   -0.5,  999.0,   -0.6,   -1.2,   -0.2,   -0.2,   -1.5,   -0.6,   -0.7,  999.0,   -0.7,   -0.8,   -0.7,   -0.8,   -0.9,   -0.6,  999.0,   -0.9,   -1.4
2000/11/18 09:30,  999.0,   -1.8,   -2.7,   -1.2,   -2.1,   -1.4,  999.0,   -1.2,   -0.7,  999.0,    0.2,  999.0,  999.0,   -1.0,   -2.6,   -3.7,  999.0,  999.0,  -21.0,  -19.5,   -1.8,   -4.7,   -4.1,  -11.7,   -2.5,  999.0,   -0.4,    2.8,   -2.1,    0.3,   -0.7,   -0.3,   -0.1,   -0.4,  999.0,   -0.1,    0.1,   -0.0,   -0.9,   -0.6,   -0.0,   -0.3,  999.0,   -0.9,  999.0,   -0.9,   -1.1,   -1.1,   -0.3,   -0.9,   -0.8,   -0.8,   -0.6,   -0.8,   -1.1,  -14.5,   -1.0,  -21.0
2000/11/18 09:40,  999.0,    1.5,  999.0,   -0.6,   -0.5,   -0.9,   -0.9,    0.1,    1.2,    0.3,    1.6,    1.8,   -0.4,   -2.6,   -2.7,   -3.1,  999.0,  999.0,  999.0,  -19.1,  999.0,  -12.6,  -11.3,  -11.7,  -10.3,   -8.5,   -4.1,   -1.7,   -1.4,  999.0,   -0.8,   -0.5,   -9.9,   -0.5,  -20.9,  -21.0,  -14.2,  -14.0,   -1.0,   -0.9,  -16.5,    2.9,   -1.1,   -0.9,  -21.3,  -20.9,  -21.1,  -21.3,  -14.1,  -42.1,  -21.4,  -41.8,  -14.4,  -14.4,  -14.5,   -1.1,  -21.4,   -0.7
2000/11/18 09:50,  999.0,   -4.7,   -3.7,   -1.7,   -2.4,   -2.0,   -2.1,   -2.8,   -2.5,   -1.4,  999.0,   -5.6,   -3.6,   -0.6,  999.0,   -2.2,  999.0,  999.0,  -20.2,  -19.8,  -18.5,  -17.4,  -16.5,  -16.3,  -16.7,  -13.9,  999.0,  -10.6,   -8.7,   -8.1,  -11.0,   -8.1,   -5.3,   -5.2,   -4.4,   -4.0,   -6.4,   -2.5,   -2.5,   -2.2,   -0.9,   -0.5,   -0.8,   -0.6,   -0.6,   -0.7,   -0.8,   -0.8,   -0.4,  999.0,   -0.9,   -1.1,   -0.5,   -1.0,   -0.6,   -0.9,   -0.6,   -0.3
2000/11/18 10:00,  999.0,    1.6,   -1.9,   -0.8,   -1.7,   -2.0,   -1.8,   -1.6,   -1.3,   -1.6,  999.0,   -5.2,   -8.9,  999.0,  999.0,  999.0,  999.0,  999.0,  999.0,  -20.7,  -16.0,  -14.7,  -11.5,  -10.9,   -8.5,   -6.9,   -6.7,   -4.7,   -4.5,   -1.1,   -3.1,   -1.9,   -1.1,   -0.7,   -1.0,   -0.5,   -0.6,   -0.7,   -0.8,   -0.8,   -0.7,   -0.7,   -0.9,   -0.9,   -1.1,   -0.7,   -0.7,   -1.1,   -0.6,   -0.4,   -0.7,   -0.4,   -1.0,   -0.5,   -0.8,   -1.1,   -1.3,   -0.6
2000/11/18 10:10,  999.0,   -4.5,   -3.4,   -2.8,   -2.9,   -2.7,   -3.3,   -1.4,   -1.6,   -3.9,   -4.2,  999.0,  999.0,  999.0,  999.0,  999.0,  999.0,  999.0,  -17.0,  -14.8,  -15.3,  -14.6,  -10.2,  -10.3,   -6.6,   -7.4,   -8.7,   -4.6,   -3.8,  999.0,   -3.6,   -2.0,    0.0,  999.0,   -0.7,   -1.4,   -0.2,   -1.2,   -0.6,   -0.6,   -0.5,   -0.3,   -0.5,   -0.1,   -0.0,   -0.7,   -0.3,   -0.8,   -0.8,   -0.9,   -1.1,   -0.9,   -0.6,   -0.7,   -1.3,   -1.0,   -0.7,   -1.2
2000/11/18 10:20,  999.0,   -3.9,   -2.7,   -2.4,   -2.5,   -2.0,   -2.8,   -2.2,   -1.1,   -2.7,  999.0,  999.0,  999.0,  999.0,  999.0,  999.0,  999.0,  -17.7,  -16.5,  -14.6,  -13.3,  -12.0,  -12.0,   -7.4,   -5.8,   -6.1,   -6.0,   -0.8,   -3.8,   -1.1,   -1.2,   -0.2,    9.9,   -1.1,   13.6,   -0.7,   13.6,   20.5,   -0.4,   -0.2,   -0.7,   20.8,   -0.6,   -0.9,   -1.1,   -0.1,   -0.8,   -0.8,   -0.8,   -0.6,   -1.5,   -0.6,   -1.0,   -0.6,   -1.1,   -1.1,   -0.6,  999.0
2000/11/18 10:30,  999.0,   -1.6,   -1.1,   -0.6,   -1.2,   -3.0,   -1.7,   -0.6,   -0.7,  999.0,  999.0,  999.0,  999.0,  -21.5,  -21.7,  999.0,  -19.3,  999.0,  -15.6,  -13.4,  -14.3,  -11.3,   -8.2,   -7.8,   -5.5,   -4.7,   -1.6,   -3.0,   -0.9,   -0.6,   -0.7,   -0.7,   -0.8,   -1.0,   -0.4,   -0.8,   -0.9,   -1.3,   -0.4,   -0.8,   -0.7,   -0.4,   -0.8,   -0.5,   -0.7,   -1.0,   -0.7,   -1.0,  999.0,   -1.5,   -0.5,  999.0,   -0.5,   -0.4,   -0.2,   -0.9,   -1.0,   -0.9
2000/11/18 10:40,  999.0,    1.8,    3.3,  999.0,    0.2,   -0.9,   -1.3,   -1.1,   -2.0,  999.0,  999.0,   -1.4,  -15.8,  -19.3,  -14.9,  -13.0,  999.0,  -11.9,  999.0,  -13.9,  999.0,  999.0,  999.0,  999.0,  999.0,  999.0,  999.0,  999.0,   -0.0,  999.0,  999.0,   -1.1,    0.3,   -0.9,   -1.2,   -1.2,  999.0,  999.0,   -0.9,   -1.0,   -0.9,   -0.9,   -1.3,   -0.7,  999.0,   -0.8,  999.0,   -0.8,   -1.2,  999.0,   -0.9,  999.0,   -1.1,   -1.0,    0.3,   -0.6,  999.0,   -1.0
2000/11/18 10:50,  999.0,  999.0,   -2.1,   -2.9,   -1.6,   -1.0,    1.7,  999.0,   -0.3,   -2.9,   -1.1,   -0.5,   -2.4,   -8.6,   -9.4,   -0.6,    0.5,   -2.5,   -4.5,   -6.4,   -3.0,   -3.7,   -1.8,   -0.7,   -1.1,   -0.6,   20.4,   -1.0,   -1.0,  999.0,   13.3,   20.2,   13.3,   -1.0,  999.0,   -1.1,   -0.8,   -1.3,   -1.1,  999.0,  999.0,   -0.9,   -0.3,   -0.8,   -0.8,  999.0,  999.0,   -1.0,   -0.9,   -1.0,   -0.7,   -0.7,  999.0,  999.0,   -0.8,   -0.7,   -1.1,   -0.9
2000/11/18 11:00,  999.0,  999.0,   -2.9,    0.4,   -0.8,   -0.3,   -1.5,   -1.8,   -0.5,   -0.5,    1.0,    2.3,    3.2,    4.8,  999.0,  999.0,   -6.7,  999.0,  999.0,   -0.7,   -0.7,   -0.6,   -0.8,   -1.0,   -0.5,   -1.1,   -0.9,   -0.8,   -0.9,   -1.1,   -0.3,   -0.8,   -2.1,   -1.3,   -0.5,   -0.8,   14.3,   -0.6,  999.0,   -1.2,  999.0,   -0.6,   -1.0,   -0.6,   -1.3,   -0.4,   -0.7,   -0.5,   -0.7,   -1.1,   -0.9,   -0.5,  999.0,   -0.4,   -0.9,  999.0,   -0.5,  999.0
2000/11/18 11:10,  999.0,  999.0,  999.0,   -0.5,   -1.1,   -1.7,   -1.3,   -2.3,   -2.6,   -1.5,    0.2,    2.6,    4.7,    6.5,    7.1,  999.0,  999.0,  999.0,  999.0,  999.0,  999.0,   -0.5,   -0.2,   -0.6,   -0.9,   -1.0,   -0.6,   -0.1,   -1.0,   -0.7,   -0.5,   -0.8,   -0.8,   -0.8,   -0.6,   -0.3,   -1.2,   -0.5,   -0.4,   -0.7,   -0.7,   -0.9,   -0.8,   -0.8,  999.0,   -1.0,   -0.4,   -0.9,   -0.7,   -1.0,   -0.7,   -0.8,   -1.0,   -1.3,   -1.0,   -0.7,   -1.1,   -0.8
2000/11/18 11:20,  999.0,  999.0,  999.0,   -1.1,   -2.4,   -0.2,   -2.4,   -1.0,    0.4,   -0.8,   -0.4,    2.7,    3.3,    5.8,    8.8,  999.0,  999.0,  999.0,  999.0,  999.0,   -0.2,   -0.9,   -0.5,   -1.0,   -0.6,   -0.6,   -0.8,   -0.7,   -0.5,   -0.7,  -10.8,  -11.2,   -7.2,   -1.2,   -0.6,   -1.0,   -0.8,   -1.7,   -3.7,   -5.4,   -1.1,   -7.4,   -9.2,  -12.5,  -11.5,   -4.7,   -0.5,   -6.8,  -15.5,   -3.2,   -0.7,   -7.2,   -7.1,   -0.6,   -0.7,   -1.0,   -0.6,   -0.5
2000/11/18 11:30,  999.0,  999.0,   -2.0,    1.0,    2.0,   -0.2,   -0.5,   -0.9,   -1.8,   -3.8,   -3.4,   -3.0,   -3.3,  999.0,    0.5,    0.2,    2.1,  999.0,  999.0,  999.0,   -0.7,   -0.8,   -0.6,   -0.9,   -0.7,   -1.1,   -0.6,   -0.8,   -1.0,   -0.6,   -0.8,   -0.3,   -0.6,   -0.7,   -1.1,   -0.6,   -0.8,   -0.6,   -0.5,   -0.7,   -1.3,   -0.8,   -1.0,   -0.5,   -0.9,  999.0,   -0.6,   -1.0,   -0.8,  999.0,   -0.7,   -0.5,   -0.8,   -1.5,   -0.8,   -0.8,   -1.0,   -0.8
2000/11/18 11:40,  999.0,  999.0,    1.5,   -1.1,   -2.3,   -2.4,   -1.9,   -2.1,   -3.2,   -2.5,   -2.2,   -2.4,   -2.3,   -2.5,   -3.5,    0.9,    2.8,  999.0,  999.0,  999.0,   -6.0,   -2.8,   -1.6,   -1.3,   -0.3,   -0.7,   -0.6,   -0.7,   -0.9,   -0.3,   -0.2,  -15.5,   -4.5,  -14.6,  -19.7,  -14.2,  -12.1,  -10.7,  -31.5,  -19.1,   -0.1,   -0.7,   -6.4,   -0.7,   -0.9,   -0.4,   -9.8,   -0.9,   -1.0,  -21.4,   -0.4,   20.2,   -3.2,   20.5,    6.4,   -0.5,   13.4,    0.2
2000/11/18 11:50,  999.0,    0.5,    1.0,   -0.9,   -2.4,   -0.3,   -1.8,   -3.3,   -3.5,   -3.4,   -3.0,   -4.1,   -3.8,   -2.7,   -0.9,    1.5,   -4.9,  999.0,   -1.4,    0.1,   -6.9,   -4.8,   -5.2,   -4.2,  -15.0,  999.0,  -11.2,   -0.7,   -0.7,   -0.6,  999.0,   -0.7,   -0.9,   -0.7,    3.2,    2.8,   -0.5,   -1.0,   -0.6,   -0.8,   -0.9,   -1.0,   -0.7,   -0.9,   -0.7,   -1.0,   -0.5,   -1.0,   -0.8,   -1.1,   13.6,   20.5,   20.9,   -1.1,   20.2,   20.5,    9.8,   13.4
2000/11/18 12:00,  999.0,   -2.9,   -3.1,   -1.3,   -2.5,   -1.3,   -0.4,   -0.7,   -1.7,   -1.7,   -2.7,   -2.3,   -2.5,   -2.3,   -0.9,   -1.8,   -1.2,  999.0,    8.3,    9.4,  999.0,   -6.7,   -4.3,  999.0,   -0.8,   -1.1,  999.0,   -0.9,  999.0,   -0.9,   -1.1,   -0.7,   -0.4,   -0.4,   -0.6,   -0.7,   -0.5,   -0.7,    0.1,   -0.7,   -0.8,  999.0,   -0.3,   -0.7,   -0.5,   -1.2,   -0.9,   -0.6,  999.0,  999.0,   -0.6,   -0.6,   -1.0,   -1.2,   -0.3,   -0.3,   -0.2,  999.0
2000/11/18 12:10,  999.0,   -0.8,   -2.0,   -0.9,   -1.4,   -4.8,   -2.9,   -3.5,   -3.0,   -2.9,   -4.1,   -4.7,   -5.6,   -6.1,   -4.9,   -2.3,    1.5,    4.4,    5.3,  999.0,  999.0,  999.0,   16.7,   19.9,   16.5,  999.0,  999.0,   41.3,   42.0,   42.1,  999.0,   41.5,   42.0,   42.1,  999.0,   41.9,   41.5,   42.2,   42.2,   42.0,   41.7,   31.9,   41.8,   41.7,   42.3,   41.7,   39.5,   41.9,   41.4,   41.9,   41.8,   42.2,   42.0,   41.9,   41.2,   41.9,   31.1,   40.9
2000/11/18 12:20,  999.0,    0.8,   -2.4,   -0.5,   -1.1,   -2.3,   -0.9,   -3.3,   -3.0,   -2.3,   -1.0,   -0.6,    0.2,   -4.1,   -0.5,    0.8,   -0.4,   -3.4,   -3.8,   -2.6,   -4.0,   -4.7,   -4.1,   -0.1,   -2.1,  -11.5,  -10.6,  999.0,  999.0,  999.0,  999.0,  999.0,  999.0,   33.6,  999.0,   35.8,    3.1,  -33.1,   41.5,    3.4,   41.8,    1.4,    1.0,   -0.8,  -40.8,  -41.7,   37.0,   30.4,  -42.4,    8.4,    7.6,   31.7,  999.0,    5.6,  -13.5,    4.1,  -15.5,  -16.9
2000/11/18 12:30,  999.0,   -2.6,   -2.4,   -2.3,   -2.3,   -2.4,   -2.7,   -3.2,   -3.3,   -2.4,   -1.5,   -1.2,   -0.3,   -0.2,    0.1,    0.3,    0.3,    0.6,    1.3,   13.3,   10.4,   17.5,  999.0,   16.8,   16.1,  999.0,  999.0,  999.0,  999.0,  999.0,  999.0,  999.0,  999.0,   10.7,  999.0,  999.0,   -5.8,  999.0,   -0.5,   -1.4,  999.0,  999.0,  999.0,  -10.3,  -17.5,  -28.2,  -28.2,  -29.1,   -8.3,  -32.5,  -34.1,  -36.1,  -38.1,  -39.9,  -41.9,  -41.7,  -42.3,  -41.8
2000/11/18 12:40,  999.0,   -0.6,   -1.0,   -0.8,   -2.4,   -2.5,   -2.9,   -2.8,   -3.0,   -3.5,   -3.2,   -2.3,   -1.8,   -1.6,   -1.1,   -0.3,    0.3,    0.2,    1.9,    1.9,    3.1,    4.6,    5.7,  999.0,  999.0,  999.0,  999.0,  999.0,  999.0,  999.0,  999.0,  999.0,  999.0,  999.0,   -0.4,   -0.3,   -1.6,  -18.2,  -18.7,  -12.5,  -12.9,  999.0,   -4.1,  -30.2,  -37.3,  -37.7,  -42.2,  -32.6,  -41.7,  -41.8,  -42.1,  -40.4,  -30.7,  -42.4,  -42.0,  -41.5,  -42.2,  999.0
2000/11/18 12:50,  999.0,  999.0,    4.2,    0.9,    0.5,   -0.8,   -2.9,   -2.1,   -1.8,   -1.3,   -2.5,   -2.1,   -3.1,   -3.3,   -3.2,   -3.6,   -5.1,   -6.2,   -7.3,   -9.0,  -11.5,   -5.8,   -5.1,   15.3,  999.0,   14.5,  999.0,  999.0,    0.5,    1.2,  999.0,  999.0,  999.0,  999.0,  999.0,   -1.0,   -0.5,   -0.7,   -1.0,   -0.8,  999.0,   -1.3,  999.0,  -17.9,  -32.7,  -36.9,  -30.7,  -29.2,  -23.8,  -33.9,  -37.9,  -41.7,  -39.1,  -22.4,  -28.1,  -31.6,  -21.5,  -27.9
2000/11/18 13:00,  999.0,  999.0,   -1.4,  999.0,   -1.2,   -1.6,   -1.4,   -0.3,    1.2,    0.9,    1.6,    0.2,   -1.1,   -0.1,   -0.1,    1.6,    2.5,    5.1,    5.9,    7.9,    8.9,    9.7,   15.1,  999.0,   13.5,   24.4,  999.0,  999.0,  999.0,   41.6,  999.0,   41.2,   41.6,   43.0,   41.7,   25.7,   31.0,   31.2,   38.3,   14.5,   35.3,   42.0,   -0.5,   31.3,   -0.8,   42.0,   31.3,   -0.6,   20.9,   31.2,   -0.9,   41.7,   41.7,   31.5,   21.9,   20.7,   21.4,   14.0
2000/11/18 13:10,  999.0,  999.0,  999.0,  999.0,    0.3,   -1.5,   -0.0,   -1.7,   -0.4,    1.6,   -2.2,   -1.3,   -0.7,   -0.8,   -0.8,   -1.6,   -0.5,   -0.9,  -15.8,  999.0,  999.0,  999.0,  999.0,  999.0,  999.0,   28.7,  999.0,  999.0,  999.0,  999.0,   42.1,   23.0,   42.0,   42.1,   40.6,   41.7,   42.4,   41.7,   41.9,   41.8,   41.3,   41.9,   38.8,   30.3,   42.6,   30.9,   29.1,   20.9,   41.4,   28.1,   41.3,   28.4,   28.1,   21.6,   21.2,   28.0,   41.8,   27.9
2000/11/18 13:20,  999.0,   -3.2,    0.3,   -0.0,   -1.0,   -1.2,   -1.7,   -2.1,   -1.7,   -0.5,    0.7,   -0.4,   -0.8,   -1.8,   -0.8,    1.5,    2.8,    4.0,    7.7,  999.0,  999.0,  999.0,  999.0,  999.0,  999.0,  999.0,   41.6,  999.0,   41.8,   41.8,   41.9,   42.5,   41.9,   41.8,   42.2,   42.0,   41.9,   42.0,   42.1,   41.4,   42.3,   41.9,   41.9,   41.9,   41.3,   41.8,   41.9,   41.8,   41.8,   41.8,   42.4,   42.1,   41.6,   41.6,   42.1,   42.3,   42.1,   42.1
2000/11/18 13:30,  999.0,   -1.5,   -0.7,   -0.6,   -0.2,    0.4,   -1.2,   -0.7,   -0.1,   -1.1,   -2.0,   -2.3,   -2.7,   -2.7,   -2.8,   -3.1,    2.0,   -1.8,   -2.0,   -1.8,    9.5,   14.0,  999.0,  999.0,  999.0,   26.4,  999.0,  999.0,   41.9,   41.5,   41.9,   42.4,   41.8,   42.1,  999.0,   42.0,   42.2,   27.7,   27.8,   20.2,   41.7,   41.6,  999.0,   41.9,   20.9,   41.7,   42.1,   21.2,   20.8,   41.9,   42.1,   42.4,   20.9,   10.1,   20.8,   20.6,   21.0,   42.0
2000/11/18 13:40,  999.0,   -0.6,   -0.8,    0.5,    0.6,    0.4,    0.1,    0.1,   -0.4,   -1.2,   -1.8,   -1.1,   -0.8,   -1.5,   -2.4,    0.8,   -3.1,   -3.0,   -1.7,   10.0,  999.0,  999.0,  999.0,  999.0,  999.0,  999.0,  999.0,    0.6,   40.8,  999.0,   22.5,   30.3,   40.6,   36.5,   30.0,   21.2,   37.2,   35.8,   25.5,   42.9,   31.3,   41.7,   42.2,    6.5,   25.5,   31.3,   27.8,   22.6,   27.7,   31.1,   31.3,   31.6,   31.4,   31.1,   21.7,   21.8,   41.1,   22.1
2000/11/18 13:50,  999.0,   -1.8,   -0.7,   -0.7,    0.2,   -0.3,   -1.2,   -1.1,   -1.6,   -2.2,   -2.4,   -2.2,   -2.0,   -3.0,   -4.4,   -5.4,   -7.4,  -17.3,  999.0,  999.0,  999.0,  999.0,  999.0,  -28.5,  999.0,  999.0,  999.0,  999.0,  999.0,  999.0,   41.6,   41.8,   42.0,   33.9,   41.6,    0.3,    0.2,  -34.9,    8.6,   10.0,    3.7,   10.4,  -36.2,  -15.7,   -9.6,   -5.4,   -6.3,   -4.5,  -12.2,  -30.8,   10.5,  -41.6,  -22.5,  -14.0,   -4.8,  -10.9,  -18.1,  -26.3
2000/11/18 14:00,  999.0,   -1.5,   -0.7,   -0.9,   -1.3,   -1.7,   -1.4,   -1.0,   -1.5,   -1.9,   -1.8,   -1.4,   -1.8,   -1.4,   -1.8,   -1.0,  999.0,  999.0,  999.0,  999.0,  999.0,  999.0,  999.0,  -42.7,  999.0,  -42.3,  -41.6,  -42.4,   -3.1,   -1.1,   -1.0,    2.8,   25.0,   10.2,   33.8,   42.5,   22.4,   31.8,   37.6,   42.1,   34.5,   42.1,   27.8,   19.4,   26.2,   25.3,   16.4,   35.8,   13.7,   22.8,    0.2,   10.6,   10.5,   -0.2,    5.3,   -9.4,    5.4,  -16.4
2000/11/18 14:10,  999.0,    1.1,    1.5,    1.6,    0.6,   -1.1,    2.7,    0.1,   -0.1,   -0.3,   -4.4,   -2.0,   -1.5,  999.0,  999.0,  999.0,  999.0,  999.0,  999.0,    5.1,  999.0,  999.0,  999.0,  999.0,   36.5,  999.0,   38.2,   39.6,   41.7,   38.5,  999.0,   41.5,   41.7,   41.6,   42.0,   42.0,   -0.2,   42.1,   20.9,   25.1,   41.7,   20.6,   41.9,   21.0,   42.1,   42.1,    2.2,  -10.4,   31.3,   20.2,   42.2,  999.0,   -0.4,  999.0,   -1.0,   -0.7,   -0.1,   -0.5
2000/11/18 14:20,  999.0,   -0.1,   -0.0,    0.1,   -0.4,   -0.4,   -0.8,   -0.5,    0.1,   -0.1,   -0.3,   -0.5,   -0.0,   -0.5,  999.0,    1.2,    2.9,    3.9,    5.4,    6.6,    6.8,  999.0,  999.0,  999.0,  999.0,  999.0,  999.0,  999.0,  999.0,  999.0,  999.0,  999.0,  999.0,  999.0,   12.3,   11.1,  999.0,  999.0,  999.0,  999.0,  999.0,  999.0,  999.0,   -0.3,  999.0,   -1.1,   -5.6,  999.0,   -1.0,   -8.9,   -9.8,   -0.3,  -12.2,  -13.7,  -14.5,  -31.0,  -16.8,  -17.8
2000/11/18 14:30,  999.0,   -0.6,   -1.2,   -0.3,   -0.6,   -0.1,    0.1,    0.9,    1.0,   -0.0,    0.4,    0.0,   -0.7,   -0.9,   -1.7,   -1.3,    2.4,    4.5,    5.3,  999.0,  999.0,  999.0,  999.0,  999.0,  999.0,   41.5,  999.0,  999.0,  999.0,   18.5,  999.0,   16.9,  999.0,  999.0,   14.1,   14.9,  999.0,   13.3,  999.0,   -1.0,  999.0,  999.0,    0.1,    8.6,   -0.5,   -0.9,   -1.1,  999.0,  999.0,   20.2,   -0.7,   10.4,   -0.7,   20.7,   41.7,    9.6,  -11.1,   -0.3
2000/11/18 14:40,  999.0,    0.3,    0.0,    0.5,    0.6,   -0.8,   -0.1,    0.2,   -0.0,   -0.9,   -1.0,   -1.0,   -2.1,   -2.8,   -2.5,   -1.3,    3.3,    3.6,  999.0,  999.0,    9.4,   11.7,  999.0,  999.0,  999.0,  999.0,    1.1,  999.0,  999.0,  999.0,  999.0,  999.0,  999.0,    0.2,   14.1,    9.0,  999.0,  999.0,    0.7,    0.5,   -0.1,  999.0,    0.9,   -0.6,   -0.0,   -0.0,   -0.7,    0.3,   -0.3,   -8.3,   -0.1,   -0.3,   -0.1,    0.1,    1.2,    0.4,   -0.2,   -0.4
2000/11/18 14:50,  999.0,    0.3,    0.1,    0.2,   -0.4,   -0.3,   -0.8,    0.3,   -0.0,   -1.3,   -1.7,   -1.3,   -1.5,   -2.2,   -2.4,   -1.6,   -0.8,    0.1,  999.0,  999.0,  999.0,  999.0,  999.0,  999.0,  999.0,  999.0,   -8.6,  999.0,   -6.6,  999.0,   -4.0,  999.0,   -2.1,  999.0,  999.0,   -1.5,   -1.2,  999.0,   -0.1,   -0.0,   -0.6,   -0.5,   -0.6,  999.0,   -0.6,   -1.2,   -0.6,   -0.6,   -0.6,   -0.9,   -0.5,   -0.5,   -0.8,   -0.9,   -0.9,   -0.7,   -0.7,  -13.7
2000/11/18 15:00,  999.0,   -0.5,    0.4,    0.3,    0.3,    0.3,    0.1,    0.3,    0.4,   -0.0,   -1.5,   -0.8,   -1.8,   -2.1,   -2.2,   -2.8,   -3.2,   -2.4,   -2.1,  999.0,  999.0,  999.0,  999.0,    4.3,  999.0,   -4.6,  999.0,  999.0,  999.0,  999.0,  999.0,  999.0,  999.0,  999.0,  999.0,   -1.3,   -0.8,   -0.8,   -0.5,   -0.6,   -0.6,   -0.7,   -0.5,   -0.8,   -0.5,   -0.7,   -1.0,   -0.7,   -1.0,   -0.6,   -0.5,   -0.6,   -0.9,   -0.4,   -0.9,   -0.8,   -0.5,   -0.2
2000/11/18 15:10,  999.0,   -0.1,   -0.1,    0.0,    0.0,   -0.1,   -0.1,   -0.5,    0.3,    0.3,  999.0,   -1.6,  999.0,   -0.8,   -2.1,   -2.4,   -0.5,    0.7,    4.5,  999.0,  999.0,  999.0,   13.5,    3.1,   -7.2,   -2.3,   -2.5,   -0.9,   20.5,   -0.9,   20.5,  999.0,   20.2,   13.1,   20.2,   -1.2,   -0.6,   20.6,   41.6,   10.3,   13.5,   -0.5,   -0.3,   -0.2,   -0.7,   -0.7,   -0.4,   -0.4,   -0.7,   -0.8,   -0.9,   -0.4,   -0.6,   -0.9,   -1.0,   -0.5,   -1.2,   -0.8
2000/11/18 15:20,  999.0,   -0.5,   -0.6,    0.3,   -0.0,   -0.1,   -0.4,   -0.3,   -0.4,   -1.0,   -0.8,    0.1,   -0.4,   -1.2,  999.0,  999.0,   10.3,  999.0,   12.5,   21.0,   16.6,  999.0,  999.0,   10.4,   10.8,    7.7,  999.0,   -0.2,  999.0,   -1.1,   -1.7,   -0.8,   -0.5,   -1.0,   -1.0,   -0.3,   -0.8,   -0.8,   -0.8,   -0.5,   -0.6,  999.0,   -1.0,    0.0,   -0.4,   -0.5,   -0.8,   -0.7,   -0.5,   -0.6,   -0.7,   -0.9,   -0.7,   -0.9,   -1.0,   -0.8,   -0.7,   -0.8
2000/11/18 15:30,  999.0,   -0.3,   -0.6,   -0.3,   -1.1,   -1.3,    0.8,   -3.4,   -0.3,   -0.5,   -1.0,  999.0,    2.3,    5.5,    5.2,    6.0,    7.0,    9.7,   11.4,   13.2,   14.3,   -1.5,  999.0,   -1.0,   -0.5,   -1.0,   -0.6,   -1.1,   -0.7,   -0.6,   -0.6,   -0.6,   -0.6,   -0.9,  999.0,   -0.9,   -0.9,   -1.0,   -0.8,   -0.9,   -0.7,   -0.8,   -2.0,   -6.0,   -9.0,  -12.2,   -0.7,  -14.1,  -14.5,   -1.0,  -21.3,  -20.9,  -14.6,   -0.6,  -21.2,  -14.3,  -14.2,  -14.5
2000/11/18 15:40,  999.0,   -0.4,   -0.6,   -0.2,    0.1,   -0.1,   -0.3,    0.2,   -0.4,   -1.2,   -0.3,    0.4,    1.9,    6.1,    5.5,   10.8,   15.8,   17.3,   19.0,   20.2,   20.3,  999.0,  999.0,  999.0,  999.0,  999.0,  999.0,   -0.9,   -0.9,  999.0,  999.0,  999.0,  999.0,  999.0,   -1.0,   -0.7,   -0.4,   -0.5,   -1.1,   -1.0,   -1.2,   -0.9,   -0.4,   -5.3,  999.0,  -14.5,  -41.7,  -18.7,  -13.4,  -39.0,  -29.3,  -12.6,  -22.8,  -40.6,  -25.7,  -18.3,  -19.4,  999.0
2000/11/18 15:50,  999.0,  999.0,  999.0,    0.2,   -0.3,    0.1,    0.1,   -0.4,   -0.7,   -1.2,    1.2,    2.1,    4.2,    6.6,    7.9,   11.8,   14.2,   16.4,   18.5,   19.1,   18.3,   17.5,  999.0,  999.0,  999.0,  999.0,  999.0,   -0.7,   -0.5,   -0.8,   -0.5,   -0.8,   -1.0,   -0.9,   -0.9,   -1.0,   -0.8,   -1.0,   -0.6,   -0.7,   -1.1,   -0.7,   -0.7,   -0.4,   -0.2,   -0.6,   -0.5,   -0.9,   -0.7,   -0.9,   -0.8,   -1.2,   -0.9,   -0.6,    0.1,   -0.6,   -0.3,   -0.6
2000/11/18 16:00,  999.0,  999.0,    0.3,   -0.4,   -1.3,   -0.4,   -0.4,   -0.3,   -0.3,   -1.4,   -0.3,    0.9,    3.7,    1.2,    2.3,    3.3,    6.7,   12.5,   19.5,   17.4,   17.4,   17.3,   17.5,  999.0,  999.0,  999.0,  999.0,   -0.3,   -0.1,   -0.4,   -0.6,   -0.6,   -0.4,   -0.6,   -0.4,   -0.4,   -0.2,   -0.9,   -0.7,   -0.6,   -0.6,   -0.4,   -0.7,   -0.6,   -0.8,   -1.0,   -0.8,   -0.8,   -0.8,   -0.9,   -0.6,   -1.5,   -1.2,   -0.9,   -0.9,   -0.8,   -0.7,  999.0
2000/11/18 16:10,  999.0,  999.0,  999.0,  999.0,  999.0,    0.0,    1.1,    0.4,    0.7,   -0.8,   -0.1,    0.7,    0.0,   -1.2,   -0.4,    0.2,    2.4,    4.4,    7.2,    9.2,    9.8,   12.1,  999.0,  999.0,  999.0,  999.0,  999.0,   -0.8,   -0.4,   -0.3,   -0.5,   -0.9,   -0.6,   -0.9,   -0.8,   -0.6,   -1.0,   -0.7,   -1.0,   -0.9,   -0.8,   -0.5,   -0.9,   -0.7,   -1.1,    0.0,   -0.5,   -0.4,   -1.0,   -0.8,   -0.9,   -0.1,   -0.7,   -0.7,   -1.2,   -1.1,   -0.7,   -0.3
2000/11/18 16:20,  999.0,  999.0,  999.0,  999.0,    0.8,    0.9,    0.2,   -0.4,   -0.8,   -0.9,   -0.6,   -0.8,   -0.2,   -0.4,   -0.5,   -0.0,    2.3,    4.5,    8.0,   10.8,  999.0,   13.8,  999.0,  999.0,  999.0,  999.0,  999.0,   -0.2,   -0.7,   -0.5,   -0.7,   -0.6,   -0.5,   -0.7,   -0.7,   -0.9,   -0.3,   -0.8,   -0.1,  999.0,   -0.6,   -0.4,   -0.7,   -0.7,   -1.2,   -0.6,   -0.5,   -1.1,   -0.8,   -0.8,   -1.3,   -1.1,   -1.0,  999.0,   -1.0,   -0.9,   -0.8,   -1.5
2000/11/18 16:30,  999.0,  999.0,  999.0,  999.0,   -0.5,   -0.8,   -0.4,    0.4,   -1.8,   -1.2,   -1.2,   -0.5,  999.0,  999.0,  999.0,   -0.7,   -1.6,    1.5,    5.7,  999.0,  999.0,  999.0,  999.0,  999.0,  999.0,  999.0,   -0.5,   -0.8,   -0.4,   -2.4,   -0.8,   -2.1,   -2.0,   -1.3,   -0.6,   -1.0,   -0.7,   -0.3,   -0.9,   -1.2,   -0.8,   -1.2,   -0.7,   -0.8,   -0.6,   -0.7,   -1.0,   -1.1,   -1.0,   -0.9,   -0.7,   -1.0,  999.0,   -0.8,   -0.5,   -1.1,   -0.8,   -1.0
2000/11/18 16:40,  999.0,  999.0,  999.0,  999.0,  999.0,  999.0,   -0.2,   -0.1,    0.1,  999.0,   -0.4,   -0.2,  999.0,    0.4,   -0.7,   -0.6,    0.3,  999.0,  999.0,    6.2,  999.0,  999.0,  999.0,  999.0,  999.0,  999.0,   -3.5,   -3.2,  999.0,   -1.3,   -0.8,   -0.2,   -0.8,   -1.0,   -1.4,   -1.0,   -1.0,   -1.0,   -1.1,   -0.9,   -0.5,   -0.3,   -1.0,   -0.7,   -0.2,   -0.0,   -0.4,   -1.2,   -0.6,   -0.8,   -0.1,   -0.8,   -0.8,   -1.4,   -1.1,   -0.8,   -0.6,   -0.9
2000/11/18 16:50,  999.0,  999.0,  999.0,  999.0,  999.0,  999.0,    0.2,   -0.1,   -0.2,   -0.4,    0.1,   -0.0,    1.2,   -0.8,   -0.7,   -2.7,   -1.3,  999.0,    2.1,  999.0,  999.0,  999.0,  999.0,  999.0,  999.0,  999.0,  999.0,   -4.9,   -3.4,   -3.9,   -1.9,   -0.8,   -0.8,   -0.7,   -0.4,   -0.6,   -1.0,   -0.5,   -0.6,   -0.8,   -0.7,   -0.2,   -0.9,   -0.6,   -0.8,   -1.1,   -0.6,   -0.6,   -0.9,   -0.9,  999.0,   -1.2,   -0.5,   -1.0,   -0.9,  999.0,   -0.7,   -0.8
2000/11/18 17:00,  999.0,  999.0,  999.0,    0.9,   -0.5,    0.5,    1.5,    1.9,    0.6,  999.0,    0.3,  999.0,  999.0,    0.2,  999.0,  999.0,  999.0,    4.1,    6.1,  999.0,  999.0,  999.0,  999.0,  999.0,  999.0,  999.0,   -3.4,   -1.6,   -0.5,  999.0,    0.2,   -0.5,   -0.5,  999.0,   -1.0,   -0.9,   -1.3,   -0.5,   -0.7,   -0.3,  999.0,   -0.1,   -0.3,   -0.4,   -0.5,   -0.7,   -0.7,   -0.5,  999.0,   -0.5,   -0.7,   -1.2,   -1.2,   -0.9,   -1.7,   -1.1,   -0.2,   -0.7
2000/11/18 17:10,  999.0,  999.0,  999.0,  999.0,    0.3,   -0.3,    0.4,    0.5,   -0.2,  999.0,    0.7,   -0.8,    1.1,  999.0,  999.0,  999.0,  999.0,  999.0,  999.0,  999.0,  999.0,  999.0,  999.0,  999.0,  999.0,  999.0,   -1.0,   -0.4,   -1.1,   -0.8,   -0.6,  999.0,   -0.7,   -0.4,   -0.9,   -1.1,   -0.8,   -0.7,   -0.7,   -1.1,   -0.9,   -0.9,   -0.9,   -1.1,   -1.0,   -0.5,  999.0,   -1.4,   -1.2,   -0.7,   -1.0,   -0.5,   -1.1,   -0.6,  999.0,   -0.9,   -0.5,   -0.7
2000/11/18 17:20,  999.0,  999.0,  999.0,    0.6,   -0.0,    0.7,    0.1,    0.5,    0.4,  999.0,   -1.2,    0.5,    0.7,    1.4,    1.5,  999.0,    2.7,  999.0,    7.4,    7.1,    6.4,    6.9,  999.0,  999.0,  999.0,  999.0,   -0.1,  999.0,    0.0,  999.0,  999.0,    0.0,   -0.1,   -1.0,  999.0,  999.0,  999.0,  999.0,   -0.9,   -3.0,  999.0,  999.0,  999.0,    0.0,  999.0,   -1.0,   -0.5,   -0.8,   -1.3,   -0.8,  999.0,   -0.5,   -0.9,   -0.4,   -0.8,   -0.4,   -0.9,   -1.0
2000/11/18 17:30,  999.0,   -0.5,   -1.0,   -0.9,    0.4,   -1.7,    0.1,    1.3,   -0.0,  999.0,    0.6,   -4.1,    0.2,   -4.7,   -2.9,  999.0,  999.0,  999.0,  999.0,  -13.3,  -11.6,  999.0,   -6.2,   -9.4,  999.0,  999.0,  999.0,   -5.6,   -7.3,   -0.9,    5.5,  999.0,  999.0,  999.0,   -0.7,    0.2,   -0.3,   -0.3,   -0.3,   -0.9,   -1.2,  999.0,  999.0,  999.0,  -21.1,  -21.0,  -11.2,  999.0,   -0.8,   -0.8,   -1.1,   -0.6,   -1.2,   -0.6,   -0.9,   -0.5,  999.0,   -1.3
2000/11/18 17:40,  999.0,    0.9,   -0.0,   -0.1,   -0.7,   -0.1,   -0.3,    0.2,    0.6,   -0.1,    2.9,    3.0,    2.7,   -0.5,  999.0,   -0.3,   -0.7,    1.0,    0.1,   -1.8,  999.0,  999.0,  999.0,  999.0,  -15.8,  999.0,  999.0,  999.0,  -16.9,  999.0,  999.0,  999.0,  999.0,  999.0,  999.0,  999.0,  999.0,  999.0,  999.0,  999.0,  999.0,  999.0,  999.0,  999.0,  999.0,  999.0,  999.0,  999.0,  999.0,  999.0,  999.0,  999.0,  999.0,  999.0,  999.0,  999.0,  999.0,  999.0
2000/11/18 17:50,  999.0,    1.9,    1.9,    2.0,    2.3,    2.1,    2.0,    2.0,    1.0,   -0.5,    1.2,    1.5,    0.5,    0.3,   -2.7,    0.4,  999.0,  999.0,   -2.3,  999.0,  999.0,  999.0,  999.0,  999.0,  999.0,  999.0,  999.0,  999.0,  999.0,  999.0,  999.0,  999.0,  999.0,  999.0,  999.0,  999.0,  999.0,  999.0,  999.0,  999.0,  999.0,  999.0,  999.0,  999.0,  999.0,  999.0,  999.0,  999.0,  999.0,  999.0,  999.0,  999.0,  999.0,  999.0,  999.0,  999.0,  999.0,  999.0
2000/11/18 18:00,  999.0,    3.3,    3.7,    3.7,    2.2,    3.8,    3.1,    3.3,    4.3,    5.5,    3.1,  -10.1,  -20.3,  -20.9,  -17.9,  -16.0,  -16.6,  -15.8,  999.0,  999.0,  999.0,  999.0,  999.0,  999.0,  999.0,  999.0,  999.0,  999.0,  999.0,  999.0,  999.0,  999.0,  999.0,  999.0,  999.0,  999.0,  999.0,  999.0,  999.0,  999.0,  999.0,  999.0,  999.0,  999.0,  999.0,  999.0,  999.0,  999.0,  999.0,  999.0,  999.0,  999.0,  999.0,  999.0,  999.0,  999.0,  999.0,  999.0
2000/11/18 18:10,  999.0,  999.0,  999.0,  999.0,  999.0,  999.0,  999.0,  999.0,    4.3,  -18.5,  -16.3,   -7.9,   -1.4,   -1.4,   -0.6,    0.6,   -2.4,   -4.7,   -9.9,   -6.5,   -6.6,   -7.4,   -8.5,   -7.9,   -7.3,   -6.0,   -5.3,   -7.4,   -9.6,   -8.9,   -7.2,   -6.0,   -6.3,   -6.4,   -7.1,   -6.4,   -7.1,   -8.6,   -9.7,  -10.1,  -11.3,  -11.3,  -10.8,  -10.8,  -11.1,  -11.4,  -12.6,  -12.7,  -13.2,  -13.6,  -13.1,  -12.8,  -12.0,  -11.5,  -12.2,  -11.7,  -10.1,  -10.6
2000/11/18 18:20,  999.0,    4.5,    3.5,    5.0,    6.6,    6.0,    4.4,    2.8,    2.6,    2.5,    2.1,    2.3,    3.5,    4.9,    5.9,    5.0,    4.2,    4.4,    1.3,    1.0,   -1.7,    1.2,    1.5,   -0.3,    0.2,   -3.1,   -2.9,  -13.5,  -11.7,  -15.7,  -12.0,  -14.5,  -14.3,  -13.8,   -9.8,   -8.9,   -9.3,  -10.0,   -9.6,   -6.9,  -12.3,  -13.3,  -13.7,   -8.7,   -9.5,  -10.1,  -15.1,  -15.2,  -16.0,  -16.4,  -16.0,  -17.1,  -15.7,  -14.1,   -8.3,   -9.3,  -11.1,   -9.7
2000/11/18 18:30,  999.0,    0.8,    0.3,    1.7,    2.0,    3.1,    2.3,    2.1,    2.1,    1.1,    1.2,    1.2,    0.7,    0.8,    0.1,   -1.2,   -2.2,   -3.6,   -4.5,   -5.3,   -4.8,   -5.5,   -5.5,  -14.5,  -15.4,  -17.6,  -19.4,  -21.8,  -21.7,  -21.8,  -21.7,  -19.7,  -15.8,  -11.1,   -6.6,   -5.3,   -4.9,   -4.8,   -5.5,   -6.6,   -7.6,   -8.8,   -9.9,  -11.0,  -12.1,  -12.6,  -12.7,  -13.9,  -14.8,  -14.6,  -14.7,  -14.1,  -13.5,  -13.5,  -13.3,  -12.8,  -12.3,  -10.1
2000/11/18 18:40,  999.0,    1.7,    1.9,    3.5,    3.9,    4.0,    3.6,    3.3,    6.0,    8.3,    8.7,    6.8,    6.0,    3.7,    2.3,    1.4,   -0.1,   -1.1,   -1.8,   -2.1,   -2.4,   -3.1,   -4.9,   -6.2,   -7.5,   -8.1,   -9.2,  -12.8,  -12.6,  -12.9,  -10.9,   -9.2,   -6.2,   -3.7,   -4.4,   -4.2,   -3.6,   -3.6,   -4.2,   -4.6,   -5.4,   -5.9,   -6.2,   -6.4,   -6.9,   -6.4,   -7.0,   -7.5,   -7.8,   -8.0,   -8.0,   -8.1,   -7.9,   -8.1,   -8.5,   -8.8,   -8.4,   -7.8
2000/11/18 18:50,  999.0,    3.2,    5.6,    7.0,    4.2,    3.6,    3.9,    3.8,    2.4,    1.4,    0.8,    0.7,    1.1,   -0.0,    1.9,    0.5,   -0.6,   -0.6,   -0.7,    0.2,    0.9,    0.2,    0.4,   -0.7,   -0.3,   -0.8,   -0.3,    0.2,    0.9,    1.6,    1.8,    0.1,    0.7,    2.0,   -1.8,   -3.0,   -5.1,   -7.0,   -7.5,   -7.9,   -8.0,   -8.5,   -9.2,   -9.2,   -9.4,  -10.1,   -8.0,   -4.2,   -5.0,   -5.0,   -4.3,   -2.3,   -4.0,   -5.4,   -4.3,   -8.0,   -5.8,   -6.5
2000/11/18 19:00,  999.0,    3.5,    2.6,    3.9,    5.0,    6.0,    6.2,    6.0,    6.0,    5.6,    4.6,    2.4,    2.1,    1.6,   -0.8,   -0.8,    0.0,    0.7,   -0.2,    1.4,    1.5,    1.5,    2.1,    1.9,    0.9,    0.8,    1.1,    0.7,   -0.2,    0.4,    1.3,   -0.0,   -0.1,   -2.9,   -0.2,   -1.3,  999.0,  -10.3,  -10.0,   -7.5,  -10.0,  -12.7,  -12.3,  -11.8,   -9.8,  999.0,  999.0,  999.0,  999.0,  999.0,  999.0,  999.0,  999.0,  999.0,  999.0,  999.0,  999.0,  999.0
2000/11/18 19:10,  999.0,    4.3,    5.4,    5.4,    5.2,    5.0,    5.7,    5.1,    5.7,    6.1,    7.1,    8.5,    9.6,    9.8,    8.9,    8.4,    8.2,    7.0,    5.9,    3.7,    3.7,    3.1,    0.7,   -1.9,   -2.7,   -3.8,   -1.9,   -1.6,   -3.3,   -5.0,   -5.2,   -7.3,   -6.1,  -12.0,   -2.9,  -16.1,  -10.6,   -9.2,  -16.7,  -26.1,  -15.4,  -14.2,  -14.5,  -19.9,  -25.0,  -25.3,  -22.9,  -20.5,  -19.3,  999.0,  999.0,  999.0,  999.0,   -4.4,  999.0,  999.0,  -15.3,  -13.6
2000/11/18 19:20,  999.0,    3.0,    3.4,    3.1,    2.8,    3.1,    3.3,    3.7,    3.8,    4.7,    5.5,    2.0,   -0.5,    0.8,    2.6,    3.0,   -0.1,   -0.6,    0.8,    1.3,    1.5,    1.2,    0.2,    1.6,    3.4,    3.7,    3.2,    3.4,    4.0,    3.6,    3.3,    2.5,    1.6,    1.0,    3.1,    2.3,    1.2,    2.7,    2.1,    0.3,   -0.9,   -0.9,    0.9,    1.7,    2.4,    6.4,    7.3,    5.4,    4.1,    5.7,   -1.0,    0.9,    0.7,    0.1,    0.1,    2.6,    4.0,    4.8
2000/11/18 19:30,  999.0,    0.2,    0.4,   -0.3,   -1.0,   -1.8,   -4.3,   -3.5,   -1.0,    1.6,    2.9,    2.0,    1.7,    1.5,    1.5,    1.9,    2.3,    2.3,    1.8,    0.9,   -0.8,   -0.8,   -1.3,   -0.4,    1.2,    1.6,    3.1,    4.3,    3.9,    5.8,    5.6,    5.6,    7.3,    7.6,    7.8,    7.2,    5.6,    6.2,    8.2,    8.7,    7.7,   14.9,    8.7,    6.9,   -2.2,    1.2,    4.1,  999.0,    4.3,    4.7,  999.0,   15.2,   15.9,   16.6,   18.0,  999.0,  999.0,  999.0
2000/11/18 19:40,  999.0,    4.2,    3.6,    3.8,    4.0,    3.4,    5.5,  999.0,  999.0,    5.8,    9.9,    7.7,    5.5,    3.1,    3.2,   -0.0,    1.2,    2.5,    3.5,    4.3,    4.6,    5.1,    5.6,    7.6,    5.8,    6.4,    4.7,    3.2,    5.1,    0.5,    0.8,   -0.0,   -0.3,    0.2,    0.2,   -0.7,   -1.2,   -1.9,   -2.7,   -3.6,   -3.1,   -1.4,   -4.7,   -1.7,    0.7,    2.2,    3.2,  999.0,    2.9,   -0.0,    2.0,    0.4,    7.9,    5.1,   -1.2,    2.4,    1.8,   -2.5
2000/11/18 19:50,  999.0,    2.5,    3.3,    4.1,    3.0,    0.8,   -0.3,   -1.2,   -2.2,    2.6,    2.0,    0.5,   -0.1,   -6.4,   -1.1,   -1.5,   -0.6,   -0.4,   -7.2,   -6.5,    0.9,    1.4,    2.8,    3.4,    3.8,    4.2,    2.2,   10.0,    5.4,  999.0,   12.0,  999.0,  999.0,  999.0,  999.0,  999.0,  999.0,   -0.5,   -0.6,  999.0,  999.0,   -0.4,  999.0,  999.0,  999.0,  999.0,  999.0,  999.0,  999.0,  999.0,  999.0,  999.0,  999.0,  999.0,  999.0,  999.0,  999.0,  999.0
2000/11/18 20:00,  999.0,   -8.7,   -6.2,   -2.9,   -2.6,   -2.0,   -3.1,   -3.9,   -6.2,   -6.1,   -9.5,   -8.8,   -9.9,  -10.6,  -10.4,  -10.9,   -9.7,   -9.6,  -10.3,   -8.7,   -8.0,  -11.2,  -10.7,  -10.2,   -9.2,   -7.8,  999.0,   -8.4,  999.0,  999.0,  999.0,  999.0,  999.0,  999.0,  999.0,  999.0,  999.0,  999.0,  999.0,  999.0,  999.0,  999.0,  999.0,  999.0,  999.0,  999.0,  999.0,  999.0,  999.0,  999.0,  999.0,  999.0,  999.0,  999.0,  999.0,  999.0,  999.0,  999.0
2000/11/18 20:10,  999.0,   -5.7,  999.0,   -3.9,  999.0,  -10.4,  -13.3,   -6.6,   -7.6,  -10.6,   -9.3,   -8.6,   -8.9,   -9.1,   -9.4,  -10.3,  -10.6,  -11.3,  -11.1,  -12.0,  -14.0,  -14.4,  -12.6,  -11.1,  -10.6,  -11.0,   -8.3,  -10.6,  999.0,  999.0,  999.0,  999.0,  999.0,  999.0,  999.0,  999.0,  999.0,  999.0,  999.0,  999.0,  999.0,  999.0,  999.0,  999.0,  999.0,  999.0,  999.0,  999.0,   -1.6,   -2.9,   -2.9,   -2.7,   -2.2,   -0.0,    0.2,   -0.5,   -2.0,   -2.5
2000/11/18 20:20,  999.0,   -4.6,  999.0,  -13.7,   -9.5,   -9.8,   -8.0,   -5.8,   -7.8,   -8.0,   -9.6,  -11.3,  -11.0,  -10.1,   -9.8,   -9.4,   -9.6,  -10.1,   -9.1,   -8.5,   -7.4,  -15.5,  -16.4,  -10.4,   -9.2,   -9.5,   -8.9,   -9.1,   -8.6,   -8.7,    1.2,    0.4,   -2.6,   -1.6,   -1.6,  -13.3,  -13.5,  -12.7,  -13.4,  -13.6,  -12.8,  -12.6,   -8.8,   -7.0,   -6.9,   -5.5,   -4.5,   -4.1,   -4.6,   -5.8,   -5.9,   -4.9,   -3.5,   -5.2,   -4.5,   -4.0,   -4.2,   -4.9
2000/11/18 20:30,  999.0,  999.0,    3.6,  999.0,   -2.1,   -0.9,   -0.3,   -2.2,   -1.1,    0.5,    2.1,   -4.5,   -4.7,   -3.0,   -3.7,   -2.5,   -1.1,    0.7,    1.7,    2.3,    1.8,    0.4,   -1.0,   -0.0,   -0.9,   -1.3,   -3.1,   -4.3,   -4.3,   -3.5,   -6.3,   -3.2,   -3.4,   -3.5,   -4.6,   -3.9,   -3.2,   -3.4,   -4.7,   -6.8,   -5.5,   -3.1,   -1.5,   -2.8,   -5.3,   -9.0,   -9.3,  -10.2,  -10.2,   -9.4,   -8.8,   -6.9,   -5.7,   -4.4,   -4.0,   -3.7,   -3.0,   -3.1
2000/11/18 20:40,  999.0,   -0.9,    1.4,    2.1,    1.2,    0.9,    1.1,    0.3,   -1.0,   -1.3,   -0.0,    1.7,    2.3,    1.1,    0.3,   -0.2,    0.1,    1.9,    2.7,    2.5,    1.5,   -0.1,   -2.8,   -4.8,   -5.1,   -3.5,   -4.8,   -5.1,   -4.1,   -4.3,   -3.7,   -4.4,   -5.9,   -6.9,   -6.1,   -5.5,   -5.4,   -3.9,   -5.5,   -5.1,   -1.8,   -1.4,   -4.1,   -2.4,   -3.3,   -3.9,   -5.8,   -5.2,   -5.7,   -7.7,   -9.5,   -9.9,  -10.8,  -12.6,  -12.4,  -12.2,  -11.4,  -10.2
2000/11/18 20:50,  999.0,    3.7,   -3.1,   -2.0,    0.7,   -2.7,   -2.7,   -1.8,   -1.3,   -1.4,   -1.3,   -0.7,    0.4,    0.6,    1.0,    1.3,    2.4,    1.0,    1.2,    0.9,   -0.9,   -1.5,   -2.9,   -3.7,   -4.5,   -4.0,   -4.0,   -3.8,   -3.6,   -4.8,   -5.1,   -5.8,   -6.1,   -6.6,   -7.4,   -6.7,   -5.9,   -6.7,   -6.8,   -7.5,   -8.3,   -3.9,   -5.8,   -4.0,   -8.2,   -8.8,   -8.4,   -7.8,   -6.8,   -6.5,   -6.8,   -7.8,   -8.7,   -8.8,   -9.8,   -9.8,   -9.2,   -9.3
2000/11/18 21:00,   -0.2,    1.4,    1.8,    1.4,   -0.4,   -1.2,   -1.7,   -1.1,   -0.0,   -0.3,   -2.2,   -0.6,    1.6,    0.8,    0.5,    1.2,    2.0,    2.0,    1.8,    2.1,    1.1,   -0.2,   -0.7,   -1.7,   -2.5,   -2.8,   -2.9,   -3.5,   -3.8,   -3.3,   -3.1,   -2.3,   -2.0,   -1.8,   -1.4,   -1.4,   -0.4,   -1.5,   -4.0,   -3.1,   -1.3,    1.3,    0.3,   -0.7,   -3.3,   -4.6,   -4.7,   -4.1,   -3.7,   -4.1,   -4.2,   -4.6,   -4.4,   -4.4,   -5.3,   -5.2,   -5.4,   -5.4
2000/11/18 21:10,    1.2,    1.8,    1.0,    0.1,    0.6,   -0.3,    0.8,   -0.8,   -1.6,   -0.5,   -0.1,   -0.0,   -0.0,    0.3,    1.2,    1.6,    1.6,    1.4,    2.0,    2.1,    1.2,   -0.2,   -1.4,   -2.5,   -3.2,   -3.6,   -3.5,   -3.7,   -4.2,   -4.3,   -5.0,   -4.6,   -4.8,   -5.5,   -5.9,   -5.5,   -4.0,   -3.3,   -2.9,   -6.6,   -3.4,   -4.5,   -5.5,   -5.1,   -6.1,   -6.4,   -6.8,   -7.1,   -6.4,   -5.8,   -5.6,   -5.5,   -6.4,   -6.5,   -6.4,   -5.9,   -5.6,   -5.3
2000/11/18 21:20,   -1.7,    0.4,    1.4,    1.3,    1.1,    0.4,    0.3,    0.0,   -0.3,   -0.7,   -0.7,   -0.7,   -0.9,    0.3,    0.6,    0.9,    0.9,    1.6,    2.6,    2.7,    2.5,    1.7,    0.9,    0.5,   -1.7,   -1.8,   -1.5,   -2.8,   -3.3,   -4.0,   -5.1,   -4.9,   -4.2,   -4.0,   -5.8,   -4.8,   -4.3,   -2.4,   -0.4,   -1.4,   -4.5,   -6.7,   -6.9,   -3.9,   -4.9,   -5.3,   -5.3,   -4.9,   -6.2,   -6.2,   -6.6,   -7.1,   -6.5,   -6.5,   -6.8,   -7.2,   -8.3,   -8.8
2000/11/18 21:30,  999.0,  999.0,  999.0,  999.0,  999.0,  999.0,  999.0,  999.0,  999.0,  999.0,  999.0,  999.0,  999.0,  999.0,  999.0,  999.0,  999.0,  999.0,  999.0,  999.0,  999.0,  999.0,  999.0,  999.0,   18.0,   18.9,  999.0,  999.0,   17.2,  999.0,  999.0,  999.0,  999.0,  999.0,  999.0,   -0.4,   -0.8,   -0.5,   -0.1,   -0.3,   -3.8,   -2.5,   -5.1,   -0.7,   -7.1,  999.0,   -4.7,   -9.8,   -1.1,  999.0,   -6.2,  999.0,  999.0,  999.0,  999.0,  999.0,  999.0,  999.0
2000/11/18 21:40,  999.0,  999.0,  999.0,  999.0,  999.0,  999.0,   -1.1,  999.0,  -14.9,  -12.9,  999.0,  999.0,   -0.9,  999.0,  999.0,  999.0,  999.0,   19.1,   21.4,  999.0,   19.9,  999.0,  999.0,   19.5,   18.1,  999.0,  999.0,  999.0,  999.0,  999.0,  999.0,  999.0,  999.0,  999.0,  999.0,  999.0,  999.0,   -0.5,   -0.8,  999.0,  999.0,  999.0,  999.0,   -1.7,  999.0,   -0.8,   -0.8,   -0.5,    0.1,   -0.2,    0.2,   -0.0,   -1.0,  999.0,   -0.5,   -0.2,    0.5,  999.0
2000/11/18 21:50,   10.7,    7.4,    3.4,    4.9,    3.0,   -0.2,   -2.7,    5.4,    6.2,    7.3,   11.0,   11.4,   15.2,  999.0,  999.0,   18.8,  999.0,   20.6,   21.4,   22.2,  999.0,   20.7,  999.0,   17.8,  999.0,  999.0,  999.0,  999.0,  999.0,   17.7,   18.2,  999.0,  999.0,  999.0,  999.0,  999.0,  999.0,   -1.2,  999.0,  999.0,  999.0,   -1.4,   -0.5,   -1.1,   -0.5,   -0.3,   -1.4,   -0.9,   -0.7,  999.0,  999.0,   -0.8,   -1.1,   -0.6,   -0.5,   -0.8,   -0.3,   -0.8
2000/11/18 22:00,   15.1,  999.0,   -4.2,  999.0,  999.0,  999.0,    9.7,  999.0,   17.8,   21.4,   17.1,   23.9,   20.3,  999.0,  999.0,  999.0,  999.0,  999.0,   23.3,  999.0,   22.8,   22.7,  999.0,   18.0,  999.0,  999.0,  999.0,  999.0,  999.0,  999.0,   16.6,  999.0,  999.0,  999.0,   -0.9,   -0.5,   -0.3,   -1.5,   -0.9,   -0.4,   -0.5,   -0.4,   -0.7,  999.0,   -0.1,    1.1,   -0.2,   -0.0,   -0.2,   -0.1,   -0.8,   -1.2,   -0.8,  999.0,   -0.8,   -0.6,  999.0,  999.0
2000/11/18 22:10,    9.3,  999.0,  999.0,  999.0,  999.0,   16.0,   18.7,   -3.0,    6.6,   20.4,   16.8,   19.0,   17.9,   16.3,   13.3,  999.0,   16.3,   18.0,  999.0,   22.4,   22.5,   23.1,   22.6,   20.2,   18.0,  999.0,  999.0,  999.0,  999.0,  999.0,   17.7,  999.0,  999.0,  999.0,   -0.7,  999.0,  999.0,   -0.6,  999.0,   -0.8,    0.0,   -1.2,  999.0,   -0.1,   -0.5,   -0.8,   -0.2,  999.0,  999.0,   -0.9,   -0.8,   -0.5,   -0.5,   -0.3,   -0.4,  999.0,  999.0,   -0.5
2000/11/18 22:20,   18.3,  999.0,  999.0,   17.1,   10.8,   10.9,   12.0,   11.1,    5.4,    4.0,    5.1,    9.7,   16.5,    9.9,    8.7,  999.0,   10.1,    3.3,  999.0,  999.0,   20.7,  999.0,   19.9,  999.0,  999.0,  999.0,  999.0,  999.0,  999.0,  999.0,   12.0,  999.0,  999.0,  999.0,  999.0,   -7.1,   -3.2,   -6.7,  999.0,   -1.0,  999.0,  999.0,   -1.6,  999.0,  999.0,   -0.6,   -0.9,  999.0,   -0.8,  999.0,   -0.5,  999.0,  999.0,    0.0,   -0.5,   -0.8,   -1.1,  999.0
2000/11/18 22:30,   21.0,  999.0,  999.0,   14.2,   15.6,    4.1,    1.0,    2.6,    2.5,  999.0,    1.9,    4.6,    3.2,   -0.7,  999.0,  999.0,    1.1,  999.0,    4.4,  999.0,    4.2,  999.0,  999.0,  999.0,  999.0,  999.0,  999.0,   13.0,  999.0,  999.0,  999.0,   14.0,   15.2,   14.8,  999.0,  999.0,  999.0,   -1.1,   -0.7,   -0.6,   -1.6,   -1.6,   -1.2,   -1.2,  999.0,   -0.4,   -1.0,   -1.3,  999.0,   -1.2,   -0.6,   -1.0,  999.0,   -0.9,   -0.8,   -1.2,   -1.7,    0.1
2000/11/18 22:40,   18.2,  999.0,  999.0,   10.0,    6.2,    4.3,    3.6,    6.1,  999.0,  999.0,   -1.5,   -3.4,    3.4,   -0.3,  999.0,  999.0,  999.0,  999.0,  999.0,  999.0,   10.0,   12.1,  999.0,  999.0,  999.0,  999.0,  999.0,  999.0,   15.6,  999.0,   15.5,   15.0,   14.4,   14.3,  999.0,  999.0,  999.0,  999.0,  999.0,  999.0,  999.0,  999.0,  999.0,  999.0,  999.0,  999.0,  999.0,  999.0,  999.0,  999.0,  999.0,  999.0,  999.0,  999.0,  999.0,  999.0,  999.0,  999.0
2000/11/18 22:50,   20.6,   13.2,  999.0,   14.0,  999.0,    4.9,   -0.1,   -0.3,    2.2,  999.0,  999.0,    6.4,  999.0,    5.2,  999.0,  999.0,  999.0,  999.0,  999.0,  999.0,  999.0,  999.0,  999.0,  999.0,  999.0,  999.0,  999.0,  999.0,  999.0,  999.0,  999.0,  999.0,  999.0,  999.0,  999.0,  999.0,  999.0,  999.0,  999.0,  999.0,  999.0,  999.0,  999.0,  999.0,  999.0,  999.0,  999.0,  999.0,  999.0,  999.0,  999.0,  999.0,  999.0,  999.0,  999.0,  999.0,  999.0,  999.0
2000/11/18 23:00,   18.7,   17.4,   15.4,    9.7,    8.9,    5.2,    4.9,    4.7,    5.2,    3.8,    0.9,  999.0,    1.0,   -0.5,    1.8,  999.0,  999.0,  999.0,  999.0,  999.0,  999.0,  999.0,  999.0,  999.0,    8.9,    9.2,  999.0,  999.0,  999.0,  999.0,  999.0,  999.0,  999.0,  999.0,  999.0,  999.0,  999.0,  999.0,  999.0,   -0.4,   -0.8,  999.0,   -0.4,  999.0,  999.0,  999.0,  999.0,  999.0,   -0.8,  999.0,   -0.5,  999.0,  999.0,  999.0,  999.0,  999.0,  999.0,  999.0
2000/11/18 23:10,   18.7,   12.3,  999.0,    1.4,    2.3,    0.1,  999.0,    2.2,    5.4,  999.0,    4.2,    6.6,    2.0,  999.0,  999.0,  999.0,    0.3,  999.0,  999.0,  999.0,  999.0,  999.0,  999.0,  999.0,    6.9,    7.2,    9.2,  999.0,  999.0,  999.0,  999.0,  999.0,  999.0,  999.0,  999.0,  999.0,  999.0,  999.0,  999.0,   -0.5,   -0.7,   -0.3,   -0.1,  999.0,   -0.4,   -0.6,   -0.7,   -0.5,   -0.8,   -0.6,  999.0,   -0.7,    0.1,  999.0,   -0.6,   -0.1,   -0.9,   -0.5
2000/11/18 23:20,   17.7,  999.0,  999.0,    2.4,    4.4,    0.9,    0.4,   -0.8,   -1.0,   -0.3,   -2.7,   -2.5,    4.4,    0.3,    2.8,  999.0,  999.0,  999.0,  999.0,    4.8,  999.0,  999.0,  999.0,  999.0,  999.0,  999.0,  999.0,  999.0,  999.0,  999.0,  999.0,  999.0,  999.0,  999.0,   -0.9,   -0.4,   -0.1,   -0.7,  999.0,   -1.0,   -0.8,   -1.0,   -1.1,   -0.8,   -0.4,   -0.4,   -0.7,  999.0,   -0.3,   -1.2,   -0.3,   -0.3,   -0.8,   -0.1,   -0.3,   -1.1,   -0.9,   -1.4
2000/11/18 23:30,   10.6,  999.0,  999.0,   -1.7,    1.3,    2.3,    0.0,    0.1,    2.7,  999.0,    0.0,    2.7,   -0.9,  999.0,   -1.0,   -1.3,  999.0,  999.0,  999.0,  999.0,  999.0,  999.0,  999.0,  999.0,  999.0,  999.0,  999.0,  999.0,  999.0,  999.0,  999.0,  999.0,  999.0,  999.0,  999.0,  999.0,   -0.6,   -0.6,   -0.3,   -0.6,  999.0,  999.0,    0.1,   -1.0,   -1.0,   -0.8,   -0.6,   -0.2,   -0.8,  999.0,   -0.4,  999.0,   -0.6,   -1.0,   -0.5,   -0.8,   -0.5,   -0.4
2000/11/18 23:40,   17.4,  999.0,   14.0,  999.0,    7.6,    3.6,    2.9,    1.9,   -5.4,   -0.2,   -1.1,  999.0,    3.6,  999.0,   -0.3,   -2.4,   -2.6,  999.0,  999.0,  999.0,  999.0,  999.0,  999.0,  999.0,  999.0,  999.0,  999.0,  999.0,  999.0,  999.0,  999.0,  999.0,  999.0,  999.0,  999.0,  999.0,  999.0,  999.0,  999.0,   -0.2,  999.0,  999.0,  999.0,  999.0,   -0.1,  999.0,    0.3,  999.0,    0.2,   -0.7,  999.0,  999.0,  999.0,   -0.7,  999.0,   -0.5,  999.0,  999.0
2000/11/18 23:50,   12.5,    7.9,  999.0,  999.0,  999.0,  999.0,    1.4,  999.0,    3.7,    5.0,    4.7,    9.9,    4.3,  999.0,    0.1,   -1.0,  999.0,  999.0,  999.0,  999.0,  999.0,  999.0,  999.0,  999.0,  999.0,  999.0,  999.0,  999.0,  999.0,  999.0,  999.0,  999.0,  999.0,  999.0,   -0.7,   -1.3,  999.0,  999.0,  999.0,  999.0,   -0.1,   -0.5,   -0.9,   -0.6,   -0.1,   -0.8,   -0.8,   -0.2,   -0.8,   -1.2,   -0.7,   -0.3,   -0.8,   -0.6,   -0.4,   -0.8,   -0.7,  999.0
